Time,TemperatureF,DewpointF,PressureIn,WindDirection,WindDirectionDegrees,WindSpeedMPH,WindSpeedGustMPH,Humidity,HourlyPrecipIn,Conditions,Clouds,dailyrainin,SolarRadiationWatts/m^2,SoftwareType,DateUTC
2013-02-01 00:00:00,4.6,-2.1,29.34,WNW,297,4.0,8.0,73,0.00,,,0.00,0.00,VWS V14.01,2013-02-01 06:00:00,
2013-02-01 00:01:00,4.6,-2.1,29.34,WNW,297,3.0,4.0,73,0.00,,,0.00,0.00,VWS V14.01,2013-02-01 06:01:00,
2013-02-01 00:02:00,4.6,-2.1,29.34,WNW,297,3.0,3.0,73,0.00,,,0.00,0.00,VWS V14.01,2013-02-01 06:02:00,
2013-02-01 00:06:00,4.5,-1.9,29.34,WNW,287,8.0,8.0,74,0.00,,,0.00,0.00,VWS V14.01,2013-02-01 06:06:00,
2013-02-01 00:08:00,4.4,-2.3,29.35,West,272,5.0,11.0,73,0.00,,,0.00,0.00,VWS V14.01,2013-02-01 06:08:00,
2013-02-01 00:13:00,4.3,-2.4,29.35,WNW,288,3.0,7.0,73,0.00,,,0.00,0.00,VWS V14.01,2013-02-01 06:13:00,
2013-02-01 00:14:00,4.3,-2.4,29.35,NNW,333,3.0,7.0,73,0.00,,,0.00,0.00,VWS V14.01,2013-02-01 06:14:00,
2013-02-01 00:15:00,4.3,-2.4,29.35,WNW,298,4.0,5.0,73,0.00,,,0.00,0.00,VWS V14.01,2013-02-01 06:15:00,
2013-02-01 00:20:00,4.3,-2.7,29.35,WNW,299,6.0,8.0,72,0.00,,,0.00,0.00,VWS V14.01,2013-02-01 06:20:00,
2013-02-01 00:21:00,4.3,-2.7,29.35,NW,311,6.0,11.0,72,0.00,,,0.00,0.00,VWS V14.01,2013-02-01 06:21:00,
2013-02-01 00:22:00,4.2,-2.8,29.35,WSW,254,7.0,14.0,72,0.00,,,0.00,0.00,VWS V14.01,2013-02-01 06:22:00,
2013-02-01 00:26:00,4.1,-3.2,29.36,WNW,292,3.0,7.0,71,0.00,,,0.00,0.00,VWS V14.01,2013-02-01 06:26:00,
2013-02-01 00:27:00,4.1,-3.2,29.36,NNW,340,1.0,5.0,71,0.00,,,0.00,0.00,VWS V14.01,2013-02-01 06:27:00,
2013-02-01 00:28:00,4.2,-3.1,29.36,WNW,286,3.0,9.0,71,0.00,,,0.00,0.00,VWS V14.01,2013-02-01 06:28:00,
2013-02-01 00:32:00,4.2,-3.1,29.36,WNW,296,8.0,8.0,71,0.00,,,0.00,0.00,VWS V14.01,2013-02-01 06:32:00,
2013-02-01 00:33:00,4.2,-3.1,29.36,WNW,292,6.0,10.0,71,0.00,,,0.00,0.00,VWS V14.01,2013-02-01 06:33:00,
2013-02-01 00:34:00,4.2,-3.4,29.36,WNW,292,4.0,7.0,70,0.00,,,0.00,0.00,VWS V14.01,2013-02-01 06:34:00,
2013-02-01 00:38:00,4.2,-3.7,29.36,WNW,302,4.0,8.0,69,0.00,,,0.00,0.00,VWS V14.01,2013-02-01 06:38:00,
2013-02-01 00:39:00,4.2,-3.7,29.36,West,278,4.0,7.0,69,0.00,,,0.00,0.00,VWS V14.01,2013-02-01 06:39:00,
2013-02-01 00:40:00,4.2,-3.7,29.36,West,269,7.0,7.0,69,0.00,,,0.00,0.00,VWS V14.01,2013-02-01 06:40:00,
2013-02-01 00:42:00,4.2,-3.7,29.37,NW,304,4.0,5.0,69,0.00,,,0.00,0.00,VWS V14.01,2013-02-01 06:42:00,
2013-02-01 00:44:00,4.2,-3.7,29.37,WSW,252,2.0,7.0,69,0.00,,,0.00,0.00,VWS V14.01,2013-02-01 06:44:00,
2013-02-01 00:46:00,4.2,-3.7,29.37,NW,304,9.0,11.0,69,0.00,,,0.00,0.00,VWS V14.01,2013-02-01 06:46:00,
2013-02-01 00:47:00,4.2,-3.7,29.37,NW,309,5.0,9.0,69,0.00,,,0.00,0.00,VWS V14.01,2013-02-01 06:47:00,
2013-02-01 00:48:00,4.2,-3.7,29.37,WNW,301,4.0,12.0,69,0.00,,,0.00,0.00,VWS V14.01,2013-02-01 06:48:00,
2013-02-01 00:52:00,4.1,-3.8,29.37,West,281,3.0,4.0,69,0.00,,,0.00,0.00,VWS V14.01,2013-02-01 06:52:00,
2013-02-01 00:53:00,4.2,-3.7,29.37,NW,309,6.0,9.0,69,0.00,,,0.00,0.00,VWS V14.01,2013-02-01 06:53:00,
2013-02-01 00:55:00,4.2,-3.4,29.37,NW,307,4.0,6.0,70,0.00,,,0.00,0.00,VWS V14.01,2013-02-01 06:55:00,
2013-02-01 01:00:00,4.1,-3.5,29.37,WNW,296,4.0,7.0,70,0.00,,,0.00,0.00,VWS V14.01,2013-02-01 07:00:00,
2013-02-01 01:01:00,4.1,-3.5,29.37,WNW,300,2.0,6.0,70,0.00,,,0.00,0.00,VWS V14.01,2013-02-01 07:01:00,
2013-02-01 01:06:00,4.1,-3.2,29.38,NW,305,3.0,4.0,71,0.00,,,0.00,0.00,VWS V14.01,2013-02-01 07:06:00,
2013-02-01 01:07:00,4.1,-2.9,29.38,WNW,301,1.0,4.0,72,0.00,,,0.00,0.00,VWS V14.01,2013-02-01 07:07:00,
2013-02-01 01:10:00,4.1,-2.9,29.38,WNW,292,2.0,6.0,72,0.00,,,0.00,0.00,VWS V14.01,2013-02-01 07:10:00,
2013-02-01 01:11:00,4.1,-2.9,29.38,WNW,302,4.0,9.0,72,0.00,,,0.00,0.00,VWS V14.01,2013-02-01 07:11:00,
2013-02-01 01:15:00,4.2,-2.8,29.38,WSW,254,6.0,11.0,72,0.00,,,0.00,0.00,VWS V14.01,2013-02-01 07:15:00,
2013-02-01 01:16:00,4.2,-2.8,29.38,West,277,5.0,9.0,72,0.00,,,0.00,0.00,VWS V14.01,2013-02-01 07:16:00,
2013-02-01 01:18:00,4.2,-3.1,29.38,NW,315,3.0,4.0,71,0.00,,,0.00,0.00,VWS V14.01,2013-02-01 07:18:00,
2013-02-01 01:21:00,4.2,-2.8,29.38,West,264,4.0,9.0,72,0.00,,,0.00,0.00,VWS V14.01,2013-02-01 07:21:00,
2013-02-01 01:23:00,4.2,-2.8,29.38,NW,311,4.0,6.0,72,0.00,,,0.00,0.00,VWS V14.01,2013-02-01 07:23:00,
2013-02-01 01:25:00,4.2,-2.8,29.38,WNW,283,4.0,4.0,72,0.00,,,0.00,0.00,VWS V14.01,2013-02-01 07:25:00,
2013-02-01 01:26:00,4.2,-2.8,29.38,NW,307,4.0,4.0,72,0.00,,,0.00,0.00,VWS V14.01,2013-02-01 07:26:00,
2013-02-01 01:27:00,4.2,-2.8,29.38,West,273,2.0,4.0,72,0.00,,,0.00,0.00,VWS V14.01,2013-02-01 07:27:00,
2013-02-01 01:30:00,4.2,-2.8,29.38,WNW,296,4.0,7.0,72,0.00,,,0.00,0.00,VWS V14.01,2013-02-01 07:30:00,
2013-02-01 01:31:00,4.2,-2.8,29.38,NW,305,6.0,7.0,72,0.00,,,0.00,0.00,VWS V14.01,2013-02-01 07:31:00,
2013-02-01 01:33:00,4.2,-2.5,29.38,WNW,299,2.0,3.0,73,0.00,,,0.00,0.00,VWS V14.01,2013-02-01 07:33:00,
2013-02-01 01:35:00,4.1,-2.6,29.38,WNW,299,0.0,4.0,73,0.00,,,0.00,0.00,VWS V14.01,2013-02-01 07:35:00,
2013-02-01 01:38:00,4.2,-2.2,29.38,NW,309,0.0,3.0,74,0.00,,,0.00,0.00,VWS V14.01,2013-02-01 07:38:00,
2013-02-01 01:39:00,4.2,-2.2,29.38,WNW,282,1.0,4.0,74,0.00,,,0.00,0.00,VWS V14.01,2013-02-01 07:39:00,
2013-02-01 01:44:00,4.2,-2.2,29.38,WNW,295,8.0,9.0,74,0.00,,,0.00,0.00,VWS V14.01,2013-02-01 07:44:00,
2013-02-01 01:45:00,4.2,-2.2,29.39,WNW,292,7.0,8.0,74,0.00,,,0.00,0.00,VWS V14.01,2013-02-01 07:45:00,
2013-02-01 01:47:00,4.2,-2.2,29.39,WNW,285,3.0,9.0,74,0.00,,,0.00,0.00,VWS V14.01,2013-02-01 07:47:00,
2013-02-01 01:50:00,4.2,-2.2,29.39,NW,310,3.0,7.0,74,0.00,,,0.00,0.00,VWS V14.01,2013-02-01 07:50:00,
2013-02-01 01:52:00,4.2,-2.5,29.39,WNW,294,3.0,6.0,73,0.00,,,0.00,0.00,VWS V14.01,2013-02-01 07:52:00,
2013-02-01 01:53:00,4.2,-2.5,29.39,WNW,302,3.0,5.0,73,0.00,,,0.00,0.00,VWS V14.01,2013-02-01 07:53:00,
2013-02-01 01:56:00,4.3,-2.4,29.39,West,267,5.0,9.0,73,0.00,,,0.00,0.00,VWS V14.01,2013-02-01 07:56:00,
2013-02-01 01:57:00,4.3,-2.4,29.39,WNW,287,4.0,9.0,73,0.00,,,0.00,0.00,VWS V14.01,2013-02-01 07:57:00,
2013-02-01 02:01:00,4.3,-2.4,29.39,West,273,7.0,7.0,73,0.00,,FEW001,0.00,0.00,VWS V14.01,2013-02-01 08:01:00,
2013-02-01 02:04:00,4.3,-2.4,29.39,WNW,296,7.0,10.0,73,0.00,,FEW001,0.00,0.00,VWS V14.01,2013-02-01 08:04:00,
2013-02-01 02:05:00,4.3,-2.4,29.39,NNE,12,2.0,8.0,73,0.00,,FEW001,0.00,0.00,VWS V14.01,2013-02-01 08:05:00,
2013-02-01 02:07:00,4.3,-2.1,29.39,NW,305,2.0,9.0,74,0.00,,FEW001,0.00,0.00,VWS V14.01,2013-02-01 08:07:00,
2013-02-01 02:09:00,4.3,-2.1,29.39,WSW,238,4.0,8.0,74,0.00,,FEW001,0.00,0.00,VWS V14.01,2013-02-01 08:09:00,
2013-02-01 02:12:00,4.3,-2.1,29.39,WNW,302,5.0,9.0,74,0.00,,FEW001,0.00,0.00,VWS V14.01,2013-02-01 08:12:00,
2013-02-01 02:14:00,4.3,-2.1,29.39,WNW,298,5.0,6.0,74,0.00,,FEW001,0.00,0.00,VWS V14.01,2013-02-01 08:14:00,
2013-02-01 02:15:00,4.3,-2.1,29.39,West,276,7.0,11.0,74,0.00,,FEW001,0.00,0.00,VWS V14.01,2013-02-01 08:15:00,
2013-02-01 02:17:00,4.3,-2.4,29.40,WNW,292,3.0,8.0,73,0.00,,FEW001,0.00,0.00,VWS V14.01,2013-02-01 08:17:00,
2013-02-01 02:20:00,4.3,-2.4,29.40,NW,313,4.0,7.0,73,0.00,,FEW001,0.00,0.00,VWS V14.01,2013-02-01 08:20:00,
2013-02-01 02:22:00,4.2,-2.5,29.40,NW,306,5.0,5.0,73,0.00,,FEW001,0.00,0.00,VWS V14.01,2013-02-01 08:22:00,
2013-02-01 02:23:00,4.2,-2.2,29.40,WNW,292,4.0,8.0,74,0.00,,FEW001,0.00,0.00,VWS V14.01,2013-02-01 08:23:00,
2013-02-01 02:26:00,4.3,-2.1,29.40,West,269,6.0,10.0,74,0.00,,FEW001,0.00,0.00,VWS V14.01,2013-02-01 08:26:00,
2013-02-01 02:27:00,4.3,-2.1,29.40,WNW,284,5.0,8.0,74,0.00,,FEW001,0.00,0.00,VWS V14.01,2013-02-01 08:27:00,
2013-02-01 02:28:00,4.3,-2.1,29.40,WNW,303,4.0,7.0,74,0.00,,FEW001,0.00,0.00,VWS V14.01,2013-02-01 08:28:00,
2013-02-01 02:32:00,4.2,-2.5,29.40,WNW,288,8.0,8.0,73,0.00,,FEW001,0.00,0.00,VWS V14.01,2013-02-01 08:32:00,
2013-02-01 02:33:00,4.2,-2.8,29.40,West,277,6.0,13.0,72,0.00,,FEW001,0.00,0.00,VWS V14.01,2013-02-01 08:33:00,
2013-02-01 02:34:00,4.1,-2.9,29.40,WNW,296,3.0,7.0,72,0.00,,FEW001,0.00,0.00,VWS V14.01,2013-02-01 08:34:00,
2013-02-01 02:35:00,4.1,-2.9,29.40,West,281,6.0,13.0,72,0.00,,FEW001,0.00,0.00,VWS V14.01,2013-02-01 08:35:00,
2013-02-01 02:38:00,4.1,-3.2,29.40,West,275,5.0,9.0,71,0.00,,FEW001,0.00,0.00,VWS V14.01,2013-02-01 08:38:00,
2013-02-01 02:40:00,4.1,-3.2,29.40,NNW,331,5.0,7.0,71,0.00,,FEW001,0.00,0.00,VWS V14.01,2013-02-01 08:40:00,
2013-02-01 02:43:00,4.0,-3.3,29.41,West,262,5.0,11.0,71,0.00,,FEW001,0.00,0.00,VWS V14.01,2013-02-01 08:43:00,
2013-02-01 02:45:00,4.0,-3.3,29.41,NW,319,4.0,11.0,71,0.00,,FEW001,0.00,0.00,VWS V14.01,2013-02-01 08:45:00,
2013-02-01 02:50:00,4.0,-3.0,29.40,NW,311,3.0,7.0,72,0.00,,FEW001,0.00,0.00,VWS V14.01,2013-02-01 08:50:00,
2013-02-01 02:51:00,4.0,-2.7,29.40,West,264,3.0,4.0,73,0.00,,FEW001,0.00,0.00,VWS V14.01,2013-02-01 08:51:00,
2013-02-01 02:56:00,3.9,-2.5,29.40,WSW,238,5.0,6.0,74,0.00,,FEW001,0.00,0.00,VWS V14.01,2013-02-01 08:56:00,
2013-02-01 02:59:00,3.9,-2.5,29.40,WNW,292,6.0,8.0,74,0.00,,FEW001,0.00,0.00,VWS V14.01,2013-02-01 08:59:00,
2013-02-01 03:00:00,3.8,-2.6,29.41,WNW,302,10.0,11.0,74,0.00,,FEW001,0.00,0.00,VWS V14.01,2013-02-01 09:00:00,
2013-02-01 03:01:00,3.8,-2.6,29.40,WNW,288,4.0,10.0,74,0.00,,SCT020,0.00,0.00,VWS V14.01,2013-02-01 09:01:00,
2013-02-01 03:05:00,3.8,-3.2,29.41,WNW,286,2.0,13.0,72,0.00,,SCT020,0.00,0.00,VWS V14.01,2013-02-01 09:05:00,
2013-02-01 03:06:00,3.8,-3.2,29.41,West,267,6.0,7.0,72,0.00,,SCT020,0.00,0.00,VWS V14.01,2013-02-01 09:06:00,
2013-02-01 03:07:00,3.8,-3.5,29.41,WNW,291,7.0,11.0,71,0.00,,SCT020,0.00,0.00,VWS V14.01,2013-02-01 09:07:00,
2013-02-01 03:11:00,3.8,-3.5,29.41,NW,307,8.0,8.0,71,0.00,,SCT020,0.00,0.00,VWS V14.01,2013-02-01 09:11:00,
2013-02-01 03:12:00,3.8,-3.5,29.41,NW,306,9.0,10.0,71,0.00,,SCT020,0.00,0.00,VWS V14.01,2013-02-01 09:12:00,
2013-02-01 03:13:00,3.8,-3.5,29.41,WNW,290,4.0,9.0,71,0.00,,SCT020,0.00,0.00,VWS V14.01,2013-02-01 09:13:00,
2013-02-01 03:14:00,3.8,-3.5,29.41,NW,316,5.0,5.0,71,0.00,,SCT020,0.00,0.00,VWS V14.01,2013-02-01 09:14:00,
2013-02-01 03:18:00,3.7,-3.0,29.40,WNW,294,4.0,11.0,73,0.00,,SCT020,0.00,0.00,VWS V14.01,2013-02-01 09:18:00,
2013-02-01 03:19:00,3.7,-3.0,29.41,WNW,303,3.0,7.0,73,0.00,,SCT020,0.00,0.00,VWS V14.01,2013-02-01 09:19:00,
2013-02-01 03:21:00,3.7,-3.0,29.41,NW,325,6.0,6.0,73,0.00,,SCT020,0.00,0.00,VWS V14.01,2013-02-01 09:21:00,
2013-02-01 03:24:00,3.6,-2.8,29.41,WNW,283,3.0,6.0,74,0.00,,SCT020,0.00,0.00,VWS V14.01,2013-02-01 09:24:00,
2013-02-01 03:25:00,3.6,-2.8,29.40,NW,319,2.0,8.0,74,0.00,,SCT020,0.00,0.00,VWS V14.01,2013-02-01 09:25:00,
2013-02-01 03:26:00,3.6,-2.8,29.40,NW,306,1.0,5.0,74,0.00,,SCT020,0.00,0.00,VWS V14.01,2013-02-01 09:26:00,
2013-02-01 03:28:00,3.6,-2.8,29.41,West,274,3.0,9.0,74,0.00,,SCT020,0.00,0.00,VWS V14.01,2013-02-01 09:28:00,
2013-02-01 03:31:00,3.5,-2.9,29.41,NW,314,4.0,8.0,74,0.00,,CLR,0.00,0.00,VWS V14.01,2013-02-01 09:31:00,
2013-02-01 03:32:00,3.5,-2.9,29.41,WNW,300,8.0,8.0,74,0.00,,CLR,0.00,0.00,VWS V14.01,2013-02-01 09:32:00,
2013-02-01 03:34:00,3.4,-3.0,29.41,WNW,296,2.0,7.0,74,0.00,,CLR,0.00,0.00,VWS V14.01,2013-02-01 09:34:00,
2013-02-01 03:37:00,3.4,-3.3,29.41,WNW,296,5.0,9.0,73,0.00,,CLR,0.00,0.00,VWS V14.01,2013-02-01 09:37:00,
2013-02-01 03:38:00,3.4,-3.3,29.41,West,275,2.0,5.0,73,0.00,,CLR,0.00,0.00,VWS V14.01,2013-02-01 09:38:00,
2013-02-01 03:39:00,3.4,-3.3,29.41,West,279,5.0,8.0,73,0.00,,CLR,0.00,0.00,VWS V14.01,2013-02-01 09:39:00,
2013-02-01 03:42:00,3.3,-3.7,29.40,WNW,294,4.0,9.0,72,0.00,,CLR,0.00,0.00,VWS V14.01,2013-02-01 09:42:00,
2013-02-01 03:46:00,3.3,-3.7,29.41,WNW,299,2.0,9.0,72,0.00,,CLR,0.00,0.00,VWS V14.01,2013-02-01 09:46:00,
2013-02-01 03:47:00,3.3,-3.7,29.40,WNW,299,4.0,7.0,72,0.00,,CLR,0.00,0.00,VWS V14.01,2013-02-01 09:47:00,
2013-02-01 03:52:00,3.2,-3.8,29.41,WNW,286,8.0,8.0,72,0.00,,CLR,0.00,0.00,VWS V14.01,2013-02-01 09:52:00,
2013-02-01 03:53:00,3.2,-4.1,29.41,WNW,294,5.0,8.0,71,0.00,,CLR,0.00,0.00,VWS V14.01,2013-02-01 09:53:00,
2013-02-01 03:56:00,3.2,-4.1,29.41,NW,306,4.0,6.0,71,0.00,,CLR,0.00,0.00,VWS V14.01,2013-02-01 09:56:00,
2013-02-01 03:57:00,3.2,-4.1,29.41,NW,309,3.0,8.0,71,0.00,,CLR,0.00,0.00,VWS V14.01,2013-02-01 09:57:00,
2013-02-01 03:59:00,3.2,-4.4,29.41,NW,306,3.0,9.0,70,0.00,,CLR,0.00,0.00,VWS V14.01,2013-02-01 09:59:00,
2013-02-01 04:01:00,3.2,-4.4,29.41,WNW,298,5.0,6.0,70,0.00,,SCT013,0.00,0.00,VWS V14.01,2013-02-01 10:01:00,
2013-02-01 04:02:00,3.2,-4.4,29.41,NW,309,7.0,7.0,70,0.00,,SCT013,0.00,0.00,VWS V14.01,2013-02-01 10:02:00,
2013-02-01 04:05:00,3.2,-4.4,29.41,WNW,292,4.0,6.0,70,0.00,,SCT013,0.00,0.00,VWS V14.01,2013-02-01 10:05:00,
2013-02-01 04:07:00,3.2,-4.4,29.41,WNW,284,1.0,4.0,70,0.00,,SCT013,0.00,0.00,VWS V14.01,2013-02-01 10:07:00,
2013-02-01 04:08:00,3.2,-4.4,29.41,WNW,294,3.0,4.0,70,0.00,,SCT013,0.00,0.00,VWS V14.01,2013-02-01 10:08:00,
2013-02-01 04:11:00,3.2,-4.4,29.41,NW,313,5.0,7.0,70,0.00,,SCT013,0.00,0.00,VWS V14.01,2013-02-01 10:11:00,
2013-02-01 04:13:00,3.2,-4.4,29.41,NW,311,2.0,8.0,70,0.00,,SCT013,0.00,0.00,VWS V14.01,2013-02-01 10:13:00,
2013-02-01 04:15:00,3.2,-4.4,29.41,West,277,3.0,4.0,70,0.00,,SCT013,0.00,0.00,VWS V14.01,2013-02-01 10:15:00,
2013-02-01 04:19:00,3.1,-4.2,29.41,West,273,3.0,8.0,71,0.00,,SCT013,0.00,0.00,VWS V14.01,2013-02-01 10:19:00,
2013-02-01 04:20:00,3.1,-4.2,29.41,NW,311,1.0,7.0,71,0.00,,SCT013,0.00,0.00,VWS V14.01,2013-02-01 10:20:00,
2013-02-01 04:21:00,3.1,-4.2,29.41,NW,306,6.0,8.0,71,0.00,,SCT013,0.00,0.00,VWS V14.01,2013-02-01 10:21:00,
2013-02-01 04:25:00,3.1,-4.5,29.41,NW,308,3.0,4.0,70,0.00,,SCT013,0.00,0.00,VWS V14.01,2013-02-01 10:25:00,
2013-02-01 04:26:00,3.1,-4.5,29.41,NW,307,0.0,6.0,70,0.00,,SCT013,0.00,0.00,VWS V14.01,2013-02-01 10:26:00,
2013-02-01 04:27:00,3.1,-4.5,29.41,NW,310,0.0,4.0,70,0.00,,SCT013,0.00,0.00,VWS V14.01,2013-02-01 10:27:00,
2013-02-01 04:30:00,3.1,-4.5,29.41,WNW,288,6.0,6.0,70,0.00,,SCT013,0.00,0.00,VWS V14.01,2013-02-01 10:30:00,
2013-02-01 04:32:00,3.0,-4.6,29.41,NW,307,5.0,10.0,70,0.00,,SCT013,0.00,0.00,VWS V14.01,2013-02-01 10:32:00,
2013-02-01 04:37:00,3.0,-4.6,29.42,WNW,282,5.0,7.0,70,0.00,,SCT013,0.00,0.00,VWS V14.01,2013-02-01 10:37:00,
2013-02-01 04:38:00,2.9,-4.7,29.42,West,279,4.0,12.0,70,0.00,,SCT013,0.00,0.00,VWS V14.01,2013-02-01 10:38:00,
2013-02-01 04:42:00,3.0,-4.6,29.42,WNW,297,2.0,6.0,70,0.00,,SCT013,0.00,0.00,VWS V14.01,2013-02-01 10:42:00,
2013-02-01 04:44:00,2.9,-4.7,29.42,NW,311,2.0,4.0,70,0.00,,SCT013,0.00,0.00,VWS V14.01,2013-02-01 10:44:00,
2013-02-01 04:47:00,3.0,-4.6,29.42,WNW,288,3.0,3.0,70,0.00,,SCT013,0.00,0.00,VWS V14.01,2013-02-01 10:47:00,
2013-02-01 04:49:00,3.0,-4.6,29.42,NW,304,5.0,8.0,70,0.00,,SCT013,0.00,0.00,VWS V14.01,2013-02-01 10:49:00,
2013-02-01 04:50:00,3.0,-4.6,29.42,WNW,294,5.0,5.0,70,0.00,,SCT013,0.00,0.00,VWS V14.01,2013-02-01 10:50:00,
2013-02-01 04:54:00,2.9,-4.7,29.42,WNW,292,2.0,6.0,70,0.00,,SCT013,0.00,0.00,VWS V14.01,2013-02-01 10:54:00,
2013-02-01 04:55:00,2.9,-4.7,29.42,WNW,292,5.0,5.0,70,0.00,,SCT013,0.00,0.00,VWS V14.01,2013-02-01 10:55:00,
2013-02-01 04:56:00,2.9,-4.7,29.42,WNW,302,2.0,6.0,70,0.00,,SCT013,0.00,0.00,VWS V14.01,2013-02-01 10:56:00,
2013-02-01 04:58:00,2.9,-4.7,29.42,WNW,285,3.0,4.0,70,0.00,,SCT013,0.00,0.00,VWS V14.01,2013-02-01 10:58:00,
2013-02-01 05:01:00,2.9,-4.7,29.42,NW,311,2.0,6.0,70,0.00,,CLR,0.00,0.00,VWS V14.01,2013-02-01 11:01:00,
2013-02-01 05:04:00,2.9,-4.7,29.42,NW,315,2.0,6.0,70,0.00,,CLR,0.00,0.00,VWS V14.01,2013-02-01 11:04:00,
2013-02-01 05:05:00,2.9,-4.7,29.42,WNW,300,2.0,4.0,70,0.00,,CLR,0.00,0.00,VWS V14.01,2013-02-01 11:05:00,
2013-02-01 05:06:00,2.9,-4.7,29.42,West,274,2.0,6.0,70,0.00,,CLR,0.00,0.00,VWS V14.01,2013-02-01 11:06:00,
2013-02-01 05:07:00,2.9,-4.7,29.42,WNW,300,3.0,5.0,70,0.00,,CLR,0.00,0.00,VWS V14.01,2013-02-01 11:07:00,
2013-02-01 05:10:00,2.9,-4.4,29.42,WNW,291,6.0,6.0,71,0.00,,CLR,0.00,0.00,VWS V14.01,2013-02-01 11:10:00,
2013-02-01 05:11:00,2.9,-4.4,29.42,NNW,327,9.0,9.0,71,0.00,,CLR,0.00,0.00,VWS V14.01,2013-02-01 11:11:00,
2013-02-01 05:13:00,2.9,-4.4,29.42,West,278,4.0,6.0,71,0.00,,CLR,0.00,0.00,VWS V14.01,2013-02-01 11:13:00,
2013-02-01 05:14:00,2.9,-4.4,29.42,NW,306,4.0,5.0,71,0.00,,CLR,0.00,0.00,VWS V14.01,2013-02-01 11:14:00,
2013-02-01 05:17:00,2.9,-4.4,29.42,WNW,293,4.0,4.0,71,0.00,,CLR,0.00,0.00,VWS V14.01,2013-02-01 11:17:00,
2013-02-01 05:18:00,2.9,-4.4,29.42,NW,316,2.0,4.0,71,0.00,,CLR,0.00,0.00,VWS V14.01,2013-02-01 11:18:00,
2013-02-01 05:19:00,2.9,-4.4,29.42,NW,316,1.0,3.0,71,0.00,,CLR,0.00,0.00,VWS V14.01,2013-02-01 11:19:00,
2013-02-01 05:24:00,2.9,-4.4,29.42,NW,305,1.0,5.0,71,0.00,,CLR,0.00,0.00,VWS V14.01,2013-02-01 11:24:00,
2013-02-01 05:25:00,2.9,-4.1,29.42,NW,305,4.0,5.0,72,0.00,,CLR,0.00,0.00,VWS V14.01,2013-02-01 11:25:00,
2013-02-01 05:26:00,2.9,-4.1,29.43,NW,325,2.0,4.0,72,0.00,,CLR,0.00,0.00,VWS V14.01,2013-02-01 11:26:00,
2013-02-01 05:29:00,2.8,-4.2,29.43,West,273,2.0,4.0,72,0.00,,CLR,0.00,0.00,VWS V14.01,2013-02-01 11:29:00,
2013-02-01 05:30:00,2.8,-4.2,29.43,WNW,298,2.0,6.0,72,0.00,,CLR,0.00,0.00,VWS V14.01,2013-02-01 11:30:00,
2013-02-01 05:31:00,2.8,-4.2,29.43,WNW,298,2.0,2.0,72,0.00,,CLR,0.00,0.00,VWS V14.01,2013-02-01 11:31:00,
2013-02-01 05:34:00,2.8,-4.2,29.43,NW,306,3.0,7.0,72,0.00,,CLR,0.00,0.00,VWS V14.01,2013-02-01 11:34:00,
2013-02-01 05:36:00,2.8,-4.2,29.43,West,275,2.0,2.0,72,0.00,,CLR,0.00,0.00,VWS V14.01,2013-02-01 11:36:00,
2013-02-01 05:37:00,2.8,-4.2,29.43,NW,306,3.0,5.0,72,0.00,,CLR,0.00,0.00,VWS V14.01,2013-02-01 11:37:00,
2013-02-01 05:39:00,2.8,-4.2,29.43,WNW,295,2.0,7.0,72,0.00,,CLR,0.00,0.00,VWS V14.01,2013-02-01 11:39:00,
2013-02-01 05:42:00,2.8,-4.2,29.43,WNW,294,1.0,4.0,72,0.00,,CLR,0.00,0.00,VWS V14.01,2013-02-01 11:42:00,
2013-02-01 05:43:00,2.9,-4.1,29.43,WNW,287,3.0,5.0,72,0.00,,CLR,0.00,0.00,VWS V14.01,2013-02-01 11:43:00,
2013-02-01 05:44:00,2.9,-4.1,29.43,NW,311,1.0,3.0,72,0.00,,CLR,0.00,0.00,VWS V14.01,2013-02-01 11:44:00,
2013-02-01 05:48:00,2.9,-4.1,29.43,NW,311,2.0,6.0,72,0.00,,CLR,0.00,0.00,VWS V14.01,2013-02-01 11:48:00,
2013-02-01 05:49:00,2.9,-4.1,29.43,WNW,300,2.0,2.0,72,0.00,,CLR,0.00,0.00,VWS V14.01,2013-02-01 11:49:00,
2013-02-01 05:52:00,2.9,-4.1,29.43,NW,311,6.0,6.0,72,0.00,,CLR,0.00,0.00,VWS V14.01,2013-02-01 11:52:00,
2013-02-01 05:54:00,2.9,-4.1,29.43,NW,316,3.0,3.0,72,0.00,,CLR,0.00,0.00,VWS V14.01,2013-02-01 11:54:00,
2013-02-01 05:55:00,2.9,-4.1,29.43,WSW,248,2.0,8.0,72,0.00,,CLR,0.00,0.00,VWS V14.01,2013-02-01 11:55:00,
2013-02-01 05:57:00,2.9,-4.1,29.43,NW,304,3.0,4.0,72,0.00,,CLR,0.00,0.00,VWS V14.01,2013-02-01 11:57:00,
2013-02-01 06:01:00,2.8,-4.2,29.43,NNW,327,4.0,5.0,72,0.00,,CLR,0.00,0.00,VWS V14.01,2013-02-01 12:01:00,
2013-02-01 06:02:00,2.8,-4.2,29.43,WNW,288,3.0,5.0,72,0.00,,CLR,0.00,0.00,VWS V14.01,2013-02-01 12:02:00,
2013-02-01 06:03:00,2.8,-4.2,29.43,NW,306,3.0,5.0,72,0.00,,CLR,0.00,0.00,VWS V14.01,2013-02-01 12:03:00,
2013-02-01 06:06:00,2.8,-4.2,29.43,SW,233,2.0,7.0,72,0.00,,CLR,0.00,0.00,VWS V14.01,2013-02-01 12:06:00,
2013-02-01 06:08:00,2.8,-4.2,29.44,WNW,287,2.0,5.0,72,0.00,,CLR,0.00,0.00,VWS V14.01,2013-02-01 12:08:00,
2013-02-01 06:09:00,2.8,-4.2,29.44,West,281,3.0,4.0,72,0.00,,CLR,0.00,0.00,VWS V14.01,2013-02-01 12:09:00,
2013-02-01 06:13:00,2.8,-3.9,29.43,NW,304,2.0,5.0,73,0.00,,CLR,0.00,0.00,VWS V14.01,2013-02-01 12:13:00,
2013-02-01 06:14:00,2.8,-3.9,29.43,WNW,291,4.0,4.0,73,0.00,,CLR,0.00,0.00,VWS V14.01,2013-02-01 12:14:00,
2013-02-01 06:19:00,2.8,-3.9,29.44,NW,320,0.0,4.0,73,0.00,,CLR,0.00,0.00,VWS V14.01,2013-02-01 12:19:00,
2013-02-01 06:20:00,2.8,-3.9,29.44,NW,308,1.0,3.0,73,0.00,,CLR,0.00,0.00,VWS V14.01,2013-02-01 12:20:00,
2013-02-01 06:22:00,2.8,-3.9,29.44,WNW,292,2.0,2.0,73,0.00,,CLR,0.00,0.00,VWS V14.01,2013-02-01 12:22:00,
2013-02-01 06:24:00,2.8,-3.9,29.44,WNW,292,2.0,2.0,73,0.00,,CLR,0.00,0.00,VWS V14.01,2013-02-01 12:24:00,
2013-02-01 06:25:00,2.8,-3.9,29.44,NW,309,0.0,3.0,73,0.00,,CLR,0.00,0.00,VWS V14.01,2013-02-01 12:25:00,
2013-02-01 06:26:00,2.8,-3.6,29.44,WNW,292,0.0,2.0,74,0.00,,CLR,0.00,0.00,VWS V14.01,2013-02-01 12:26:00,
2013-02-01 06:27:00,2.8,-3.6,29.44,WNW,292,0.0,0.0,74,0.00,,CLR,0.00,0.00,VWS V14.01,2013-02-01 12:27:00,
2013-02-01 06:29:00,2.9,-3.5,29.44,WSW,237,3.0,3.0,74,0.00,,CLR,0.00,0.00,VWS V14.01,2013-02-01 12:29:00,
2013-02-01 06:32:00,2.9,-3.5,29.44,NW,317,2.0,5.0,74,0.00,,CLR,0.00,0.00,VWS V14.01,2013-02-01 12:32:00,
2013-02-01 06:33:00,2.8,-3.6,29.44,WNW,293,2.0,9.0,74,0.00,,CLR,0.00,0.00,VWS V14.01,2013-02-01 12:33:00,
2013-02-01 06:34:00,2.8,-3.6,29.44,NNW,342,3.0,4.0,74,0.00,,CLR,0.00,0.00,VWS V14.01,2013-02-01 12:34:00,
2013-02-01 06:38:00,2.8,-3.6,29.44,WNW,302,1.0,2.0,74,0.00,,CLR,0.00,0.00,VWS V14.01,2013-02-01 12:38:00,
2013-02-01 06:39:00,2.8,-3.6,29.44,WNW,302,1.0,3.0,74,0.00,,CLR,0.00,0.00,VWS V14.01,2013-02-01 12:39:00,
2013-02-01 06:40:00,2.8,-3.6,29.45,SSW,208,2.0,2.0,74,0.00,,CLR,0.00,0.00,VWS V14.01,2013-02-01 12:40:00,
2013-02-01 06:43:00,2.8,-3.3,29.44,NW,313,2.0,2.0,75,0.00,,CLR,0.00,0.00,VWS V14.01,2013-02-01 12:43:00,
2013-02-01 06:45:00,2.8,-3.3,29.45,NW,313,1.0,2.0,75,0.00,,CLR,0.00,0.00,VWS V14.01,2013-02-01 12:45:00,
2013-02-01 06:47:00,2.8,-3.3,29.45,NW,307,2.0,5.0,75,0.00,,CLR,0.00,0.00,VWS V14.01,2013-02-01 12:47:00,
2013-02-01 06:48:00,2.8,-3.3,29.45,NW,307,3.0,3.0,75,0.00,,CLR,0.00,0.00,VWS V14.01,2013-02-01 12:48:00,
2013-02-01 06:50:00,2.8,-3.3,29.45,WNW,299,0.0,4.0,75,0.00,,CLR,0.00,0.00,VWS V14.01,2013-02-01 12:50:00,
2013-02-01 06:52:00,2.8,-3.3,29.45,WNW,290,2.0,3.0,75,0.00,,CLR,0.00,0.00,VWS V14.01,2013-02-01 12:52:00,
2013-02-01 06:53:00,2.8,-3.3,29.45,WNW,290,1.0,2.0,75,0.00,,CLR,0.00,0.00,VWS V14.01,2013-02-01 12:53:00,
2013-02-01 06:55:00,2.8,-3.3,29.45,NW,309,3.0,4.0,75,0.00,,CLR,0.00,0.00,VWS V14.01,2013-02-01 12:55:00,
2013-02-01 06:58:00,2.8,-3.0,29.45,West,264,0.0,3.0,76,0.00,,CLR,0.00,0.00,VWS V14.01,2013-02-01 12:58:00,
2013-02-01 06:59:00,2.8,-3.3,29.45,WNW,297,2.0,4.0,75,0.00,,CLR,0.00,0.00,VWS V14.01,2013-02-01 12:59:00,
2013-02-01 07:01:00,2.7,-3.4,29.45,NW,310,2.0,5.0,75,0.00,,CLR,0.00,0.00,VWS V14.01,2013-02-01 13:01:00,
2013-02-01 07:03:00,2.7,-3.4,29.45,WNW,294,6.0,6.0,75,0.00,,CLR,0.00,0.00,VWS V14.01,2013-02-01 13:03:00,
2013-02-01 07:06:00,2.6,-3.2,29.45,NW,310,0.0,2.0,76,0.00,,CLR,0.00,5.00,VWS V14.01,2013-02-01 13:06:00,
2013-02-01 07:07:00,2.6,-3.2,29.45,WNW,293,5.0,6.0,76,0.00,,CLR,0.00,5.00,VWS V14.01,2013-02-01 13:07:00,
2013-02-01 07:08:00,2.6,-3.2,29.45,WSW,255,3.0,5.0,76,0.00,,CLR,0.00,5.00,VWS V14.01,2013-02-01 13:08:00,
2013-02-01 07:10:00,2.6,-3.2,29.45,NW,307,2.0,5.0,76,0.00,,CLR,0.00,5.00,VWS V14.01,2013-02-01 13:10:00,
2013-02-01 07:14:00,2.5,-3.3,29.45,WNW,290,2.0,4.0,76,0.00,,CLR,0.00,7.00,VWS V14.01,2013-02-01 13:14:00,
2013-02-01 07:16:00,2.5,-3.3,29.45,WNW,302,2.0,3.0,76,0.00,,CLR,0.00,11.00,VWS V14.01,2013-02-01 13:16:00,
2013-02-01 07:19:00,2.5,-3.6,29.45,WNW,287,3.0,7.0,75,0.00,,CLR,0.00,12.00,VWS V14.01,2013-02-01 13:19:00,
2013-02-01 07:20:00,2.5,-3.6,29.45,NW,306,10.0,10.0,75,0.00,,CLR,0.00,12.00,VWS V14.01,2013-02-01 13:20:00,
2013-02-01 07:23:00,2.5,-3.6,29.46,WNW,299,2.0,5.0,75,0.00,,CLR,0.00,14.00,VWS V14.01,2013-02-01 13:23:00,
2013-02-01 07:24:00,2.4,-3.7,29.46,NW,318,0.0,3.0,75,0.00,,CLR,0.00,14.00,VWS V14.01,2013-02-01 13:24:00,
2013-02-01 07:25:00,2.5,-3.6,29.46,East,95,0.0,3.0,75,0.00,,CLR,0.00,14.00,VWS V14.01,2013-02-01 13:25:00,
2013-02-01 07:28:00,2.6,-3.5,29.46,WNW,296,2.0,2.0,75,0.00,,CLR,0.00,18.00,VWS V14.01,2013-02-01 13:28:00,
2013-02-01 07:30:00,2.6,-3.5,29.46,WNW,301,0.0,4.0,75,0.00,,CLR,0.00,19.00,VWS V14.01,2013-02-01 13:30:00,
2013-02-01 07:31:00,2.6,-3.5,29.46,WNW,300,0.0,2.0,75,0.00,,CLR,0.00,21.00,VWS V14.01,2013-02-01 13:31:00,
2013-02-01 07:35:00,2.6,-3.5,29.46,WNW,302,0.0,5.0,75,0.00,,CLR,0.00,25.00,VWS V14.01,2013-02-01 13:35:00,
2013-02-01 07:36:00,2.6,-3.5,29.46,West,264,1.0,3.0,75,0.00,,CLR,0.00,26.00,VWS V14.01,2013-02-01 13:36:00,
2013-02-01 07:37:00,2.6,-3.2,29.46,NW,312,2.0,5.0,76,0.00,,CLR,0.00,28.00,VWS V14.01,2013-02-01 13:37:00,
2013-02-01 07:41:00,2.6,-3.2,29.46,WNW,293,1.0,2.0,76,0.00,,CLR,0.00,33.00,VWS V14.01,2013-02-01 13:41:00,
2013-02-01 07:42:00,2.6,-3.2,29.46,WNW,294,5.0,6.0,76,0.00,,CLR,0.00,33.00,VWS V14.01,2013-02-01 13:42:00,
2013-02-01 07:45:00,2.6,-3.2,29.47,NNW,342,1.0,3.0,76,0.00,,CLR,0.00,32.00,VWS V14.01,2013-02-01 13:45:00,
2013-02-01 07:47:00,2.7,-3.1,29.47,WNW,300,1.0,3.0,76,0.00,,CLR,0.00,39.00,VWS V14.01,2013-02-01 13:47:00,
2013-02-01 07:48:00,2.7,-3.1,29.47,WNW,300,2.0,6.0,76,0.00,,CLR,0.00,42.00,VWS V14.01,2013-02-01 13:48:00,
2013-02-01 07:49:00,2.7,-3.1,29.47,WNW,283,0.0,3.0,76,0.00,,CLR,0.00,49.00,VWS V14.01,2013-02-01 13:49:00,
2013-02-01 07:53:00,2.7,-3.1,29.47,NW,306,3.0,7.0,76,0.00,,CLR,0.00,47.00,VWS V14.01,2013-02-01 13:53:00,
2013-02-01 07:54:00,2.7,-3.1,29.47,NW,313,5.0,5.0,76,0.00,,CLR,0.00,49.00,VWS V14.01,2013-02-01 13:54:00,
2013-02-01 07:58:00,2.7,-3.1,29.47,NW,311,5.0,6.0,76,0.00,,CLR,0.00,97.00,VWS V14.01,2013-02-01 13:58:00,
2013-02-01 08:00:00,2.7,-3.1,29.47,WNW,295,1.0,4.0,76,0.00,,CLR,0.00,90.00,VWS V14.01,2013-02-01 14:00:00,
2013-02-01 08:01:00,2.6,-3.2,29.47,WNW,302,2.0,6.0,76,0.00,,BKN,0.00,104.00,VWS V14.01,2013-02-01 14:01:00,
2013-02-01 08:03:00,2.7,-3.1,29.47,NW,311,0.0,3.0,76,0.00,,BKN,0.00,107.00,VWS V14.01,2013-02-01 14:03:00,
2013-02-01 08:04:00,2.7,-3.1,29.47,SW,227,0.0,2.0,76,0.00,,BKN,0.00,107.00,VWS V14.01,2013-02-01 14:04:00,
2013-02-01 08:09:00,2.8,-3.3,29.47,WNW,285,2.0,8.0,75,0.00,,BKN,0.00,83.00,VWS V14.01,2013-02-01 14:09:00,
2013-02-01 08:10:00,2.8,-3.3,29.47,NW,308,4.0,6.0,75,0.00,,BKN,0.00,91.00,VWS V14.01,2013-02-01 14:10:00,
2013-02-01 08:11:00,2.8,-3.3,29.47,West,261,3.0,5.0,75,0.00,,BKN,0.00,97.00,VWS V14.01,2013-02-01 14:11:00,
2013-02-01 08:16:00,2.8,-3.6,29.48,NW,307,2.0,6.0,74,0.00,,BKN,0.00,135.00,VWS V14.01,2013-02-01 14:16:00,
2013-02-01 08:17:00,2.8,-3.6,29.48,WNW,296,6.0,6.0,74,0.00,,BKN,0.00,135.00,VWS V14.01,2013-02-01 14:17:00,
2013-02-01 08:21:00,2.8,-3.6,29.48,WNW,302,4.0,5.0,74,0.00,,BKN,0.00,109.00,VWS V14.01,2013-02-01 14:21:00,
2013-02-01 08:23:00,2.8,-3.6,29.48,WNW,289,4.0,7.0,74,0.00,,BKN,0.00,135.00,VWS V14.01,2013-02-01 14:23:00,
2013-02-01 08:25:00,2.8,-3.6,29.48,NW,307,1.0,4.0,74,0.00,,BKN,0.00,148.00,VWS V14.01,2013-02-01 14:25:00,
2013-02-01 08:28:00,2.8,-3.6,29.48,NW,304,4.0,5.0,74,0.00,,BKN,0.00,172.00,VWS V14.01,2013-02-01 14:28:00,
2013-02-01 08:30:00,2.8,-3.6,29.48,SW,218,4.0,7.0,74,0.00,,BKN,0.00,193.00,VWS V14.01,2013-02-01 14:30:00,
2013-02-01 08:33:00,3.0,-3.4,29.48,WSW,249,0.0,7.0,74,0.00,,SCT011,0.00,218.00,VWS V14.01,2013-02-01 14:33:00,
2013-02-01 08:35:00,3.1,-3.0,29.48,NW,306,3.0,6.0,75,0.00,,SCT011,0.00,202.00,VWS V14.01,2013-02-01 14:35:00,
2013-02-01 08:40:00,3.4,-3.0,29.49,WNW,290,3.0,5.0,74,0.00,,SCT011,0.00,251.00,VWS V14.01,2013-02-01 14:40:00,
2013-02-01 08:41:00,3.5,-2.9,29.49,NW,304,4.0,5.0,74,0.00,,SCT011,0.00,241.00,VWS V14.01,2013-02-01 14:41:00,
2013-02-01 08:42:00,3.5,-2.9,29.49,West,276,4.0,5.0,74,0.00,,SCT011,0.00,255.00,VWS V14.01,2013-02-01 14:42:00,
2013-02-01 08:46:00,3.6,-3.1,29.49,NW,315,6.0,6.0,73,0.00,,SCT011,0.00,281.00,VWS V14.01,2013-02-01 14:46:00,
2013-02-01 08:49:00,3.6,-3.4,29.49,West,263,6.0,7.0,72,0.00,,SCT011,0.00,257.00,VWS V14.01,2013-02-01 14:49:00,
2013-02-01 08:52:00,3.5,-3.5,29.49,WNW,292,4.0,9.0,72,0.00,,SCT011,0.00,257.00,VWS V14.01,2013-02-01 14:52:00,
2013-02-01 08:54:00,3.6,-3.4,29.49,NW,313,1.0,4.0,72,0.00,,SCT011,0.00,318.00,VWS V14.01,2013-02-01 14:54:00,
2013-02-01 08:55:00,3.6,-3.4,29.49,WNW,292,1.0,10.0,72,0.00,,SCT011,0.00,322.00,VWS V14.01,2013-02-01 14:55:00,
2013-02-01 08:58:00,3.8,-3.2,29.49,WNW,295,3.0,6.0,72,0.00,,SCT011,0.00,322.00,VWS V14.01,2013-02-01 14:58:00,
2013-02-01 08:59:00,3.8,-3.2,29.49,WNW,296,3.0,9.0,72,0.00,,SCT011,0.00,322.00,VWS V14.01,2013-02-01 14:59:00,
2013-02-01 09:04:00,3.9,-3.1,29.49,WSW,257,2.0,7.0,72,0.00,,SCT012,0.00,315.00,VWS V14.01,2013-02-01 15:04:00,
2013-02-01 09:05:00,3.9,-3.4,29.49,WNW,289,3.0,7.0,71,0.00,,SCT012,0.00,325.00,VWS V14.01,2013-02-01 15:05:00,
2013-02-01 09:09:00,4.1,-2.9,29.49,NW,310,2.0,7.0,72,0.00,,SCT012,0.00,353.00,VWS V14.01,2013-02-01 15:09:00,
2013-02-01 09:10:00,4.2,-2.8,29.49,WSW,256,1.0,6.0,72,0.00,,SCT012,0.00,336.00,VWS V14.01,2013-02-01 15:10:00,
2013-02-01 09:11:00,4.2,-2.8,29.49,WNW,288,4.0,5.0,72,0.00,,SCT012,0.00,336.00,VWS V14.01,2013-02-01 15:11:00,
2013-02-01 09:14:00,4.3,-3.0,29.49,West,268,3.0,5.0,71,0.00,,SCT012,0.00,287.00,VWS V14.01,2013-02-01 15:14:00,
2013-02-01 09:17:00,4.4,-2.9,29.49,WNW,294,3.0,6.0,71,0.00,,SCT012,0.00,323.00,VWS V14.01,2013-02-01 15:17:00,
2013-02-01 09:18:00,4.4,-2.9,29.49,SW,232,5.0,7.0,71,0.00,,SCT012,0.00,323.00,VWS V14.01,2013-02-01 15:18:00,
2013-02-01 09:23:00,4.5,-2.5,29.49,WNW,297,3.0,6.0,72,0.00,,SCT012,0.00,287.00,VWS V14.01,2013-02-01 15:23:00,
2013-02-01 09:24:00,4.5,-2.5,29.49,SW,217,3.0,6.0,72,0.00,,SCT012,0.00,378.00,VWS V14.01,2013-02-01 15:24:00,
2013-02-01 09:26:00,4.6,-2.7,29.49,NW,304,1.0,6.0,71,0.00,,SCT012,0.00,388.00,VWS V14.01,2013-02-01 15:26:00,
2013-02-01 09:29:00,4.7,-2.6,29.49,NW,314,1.0,6.0,71,0.00,,SCT012,0.00,381.00,VWS V14.01,2013-02-01 15:29:00,
2013-02-01 09:32:00,5.0,-2.0,29.49,South,177,2.0,3.0,72,0.00,,,0.00,401.00,VWS V14.01,2013-02-01 15:32:00,
2013-02-01 09:34:00,5.2,-1.8,29.49,NW,317,2.0,4.0,72,0.00,,,0.00,408.00,VWS V14.01,2013-02-01 15:34:00,
2013-02-01 09:35:00,5.3,-2.0,29.49,WNW,294,2.0,8.0,71,0.00,,,0.00,415.00,VWS V14.01,2013-02-01 15:35:00,
2013-02-01 09:40:00,5.3,-2.3,29.49,SW,219,5.0,5.0,70,0.00,,,0.00,427.00,VWS V14.01,2013-02-01 15:40:00,
2013-02-01 09:41:00,5.3,-2.3,29.49,WSW,256,1.0,5.0,70,0.00,,,0.00,431.00,VWS V14.01,2013-02-01 15:41:00,
2013-02-01 09:44:00,5.2,-2.4,29.49,NW,311,3.0,7.0,70,0.00,,,0.00,439.00,VWS V14.01,2013-02-01 15:44:00,
2013-02-01 09:46:00,5.3,-2.3,29.49,WNW,298,4.0,8.0,70,0.00,,,0.00,445.00,VWS V14.01,2013-02-01 15:46:00,
2013-02-01 09:47:00,5.4,-2.2,29.49,SW,223,2.0,7.0,70,0.00,,,0.00,450.00,VWS V14.01,2013-02-01 15:47:00,
2013-02-01 09:51:00,5.6,-2.3,29.49,SSW,195,3.0,4.0,69,0.00,,,0.00,445.00,VWS V14.01,2013-02-01 15:51:00,
2013-02-01 09:52:00,5.6,-2.3,29.50,NW,323,3.0,5.0,69,0.00,,,0.00,452.00,VWS V14.01,2013-02-01 15:52:00,
2013-02-01 09:57:00,5.8,-2.5,29.50,WNW,290,3.0,5.0,68,0.00,,,0.00,471.00,VWS V14.01,2013-02-01 15:57:00,
2013-02-01 10:00:00,6.0,-2.3,29.50,WSW,255,5.0,7.0,68,0.00,,,0.00,478.00,VWS V14.01,2013-02-01 16:00:00,
2013-02-01 10:05:00,6.1,-2.2,29.50,NW,325,2.0,5.0,68,0.00,,BKN013,0.00,490.00,VWS V14.01,2013-02-01 16:05:00,
2013-02-01 10:07:00,6.1,-2.2,29.50,SSW,194,4.0,8.0,68,0.00,,BKN013,0.00,494.00,VWS V14.01,2013-02-01 16:07:00,
2013-02-01 10:09:00,6.1,-2.2,29.50,WNW,298,3.0,4.0,68,0.00,,BKN013,0.00,497.00,VWS V14.01,2013-02-01 16:09:00,
2013-02-01 10:10:00,6.2,-2.1,29.50,West,273,3.0,4.0,68,0.00,,BKN013,0.00,497.00,VWS V14.01,2013-02-01 16:10:00,
2013-02-01 10:13:00,6.4,-1.9,29.49,NW,304,5.0,5.0,68,0.00,,BKN013,0.00,504.00,VWS V14.01,2013-02-01 16:13:00,
2013-02-01 10:17:00,6.6,-1.7,29.50,West,259,3.0,3.0,68,0.00,,BKN013,0.00,515.00,VWS V14.01,2013-02-01 16:17:00,
2013-02-01 10:18:00,6.7,-1.6,29.50,WNW,301,2.0,4.0,68,0.00,,BKN013,0.00,517.00,VWS V14.01,2013-02-01 16:18:00,
2013-02-01 10:19:00,6.8,-1.5,29.50,WNW,290,2.0,4.0,68,0.00,,BKN013,0.00,517.00,VWS V14.01,2013-02-01 16:19:00,
2013-02-01 10:21:00,6.9,-1.7,29.50,SW,229,4.0,4.0,67,0.00,,BKN013,0.00,522.00,VWS V14.01,2013-02-01 16:21:00,
2013-02-01 10:24:00,6.9,-1.7,29.50,WSW,238,2.0,3.0,67,0.00,,BKN013,0.00,527.00,VWS V14.01,2013-02-01 16:24:00,
2013-02-01 10:26:00,7.0,-1.6,29.49,WNW,289,1.0,4.0,67,0.00,,BKN013,0.00,531.00,VWS V14.01,2013-02-01 16:26:00,
2013-02-01 10:28:00,7.2,-1.1,29.50,SSW,200,2.0,4.0,68,0.00,,BKN013,0.00,538.00,VWS V14.01,2013-02-01 16:28:00,
2013-02-01 10:30:00,7.3,-1.0,29.50,WNW,300,2.0,4.0,68,0.00,,BKN013,0.00,540.00,VWS V14.01,2013-02-01 16:30:00,
2013-02-01 10:34:00,7.4,-1.2,29.50,WSW,252,2.0,4.0,67,0.00,,BKN013,0.00,547.00,VWS V14.01,2013-02-01 16:34:00,
2013-02-01 10:35:00,7.4,-1.2,29.50,WSW,237,0.0,5.0,67,0.00,,BKN013,0.00,547.00,VWS V14.01,2013-02-01 16:35:00,
2013-02-01 10:36:00,7.5,-1.1,29.49,WSW,253,1.0,4.0,67,0.00,,BKN013,0.00,547.00,VWS V14.01,2013-02-01 16:36:00,
2013-02-01 10:41:00,7.6,-1.4,29.50,SSW,212,5.0,5.0,66,0.00,,BKN013,0.00,538.00,VWS V14.01,2013-02-01 16:41:00,
2013-02-01 10:43:00,7.6,-1.4,29.49,West,268,3.0,6.0,66,0.00,,BKN013,0.00,520.00,VWS V14.01,2013-02-01 16:43:00,
2013-02-01 10:45:00,7.7,-1.3,29.49,SW,218,5.0,6.0,66,0.00,,BKN013,0.00,520.00,VWS V14.01,2013-02-01 16:45:00,
2013-02-01 10:47:00,7.8,-1.2,29.50,West,275,4.0,6.0,66,0.00,,BKN013,0.00,512.00,VWS V14.01,2013-02-01 16:47:00,
2013-02-01 10:48:00,7.8,-1.2,29.49,West,281,2.0,6.0,66,0.00,,BKN013,0.00,517.00,VWS V14.01,2013-02-01 16:48:00,
2013-02-01 10:49:00,7.8,-1.2,29.49,WSW,257,5.0,5.0,66,0.00,,BKN013,0.00,515.00,VWS V14.01,2013-02-01 16:49:00,
2013-02-01 10:52:00,7.9,-1.1,29.49,West,264,1.0,6.0,66,0.00,,BKN013,0.00,527.00,VWS V14.01,2013-02-01 16:52:00,
2013-02-01 10:54:00,8.0,-1.0,29.49,WNW,291,3.0,5.0,66,0.00,,BKN013,0.00,531.00,VWS V14.01,2013-02-01 16:54:00,
2013-02-01 10:56:00,8.2,-1.1,29.49,WSW,237,3.0,4.0,65,0.00,,BKN013,0.00,540.00,VWS V14.01,2013-02-01 16:56:00,
2013-02-01 10:58:00,8.3,-0.7,29.49,NW,309,6.0,9.0,66,0.00,,BKN013,0.00,564.00,VWS V14.01,2013-02-01 16:58:00,
2013-02-01 11:03:00,8.6,-0.7,29.49,NW,306,4.0,8.0,65,0.00,,SCT013,0.00,592.00,VWS V14.01,2013-02-01 17:03:00,
2013-02-01 11:04:00,8.6,-0.7,29.49,West,268,1.0,6.0,65,0.00,,SCT013,0.00,596.00,VWS V14.01,2013-02-01 17:04:00,
2013-02-01 11:05:00,8.7,-0.6,29.49,WNW,295,3.0,3.0,65,0.00,,SCT013,0.00,596.00,VWS V14.01,2013-02-01 17:05:00,
2013-02-01 11:09:00,8.6,-1.1,29.49,North,351,2.0,3.0,64,0.00,,SCT013,0.00,599.00,VWS V14.01,2013-02-01 17:09:00,
2013-02-01 11:10:00,8.7,-0.6,29.49,WNW,298,1.0,8.0,65,0.00,,SCT013,0.00,599.00,VWS V14.01,2013-02-01 17:10:00,
2013-02-01 11:11:00,8.7,-0.6,29.49,WNW,302,2.0,6.0,65,0.00,,SCT013,0.00,601.00,VWS V14.01,2013-02-01 17:11:00,
2013-02-01 11:16:00,9.0,-0.7,29.49,WSW,241,3.0,6.0,64,0.00,,SCT013,0.00,606.00,VWS V14.01,2013-02-01 17:16:00,
2013-02-01 11:17:00,9.1,-0.3,29.49,WSW,241,0.0,3.0,65,0.00,,SCT013,0.00,608.00,VWS V14.01,2013-02-01 17:17:00,
2013-02-01 11:19:00,9.4,0.3,29.49,West,263,2.0,4.0,66,0.00,,SCT013,0.00,612.00,VWS V14.01,2013-02-01 17:19:00,
2013-02-01 11:21:00,9.6,0.2,29.49,West,266,3.0,3.0,65,0.00,,SCT013,0.00,613.00,VWS V14.01,2013-02-01 17:21:00,
2013-02-01 11:23:00,9.7,0.3,29.49,WNW,296,4.0,5.0,65,0.00,,SCT013,0.00,613.00,VWS V14.01,2013-02-01 17:23:00,
2013-02-01 11:24:00,9.7,0.3,29.49,WSW,242,4.0,6.0,65,0.00,,SCT013,0.00,612.00,VWS V14.01,2013-02-01 17:24:00,
2013-02-01 11:28:00,9.6,0.2,29.48,SW,221,4.0,4.0,65,0.00,,SCT013,0.00,621.00,VWS V14.01,2013-02-01 17:28:00,
2013-02-01 11:29:00,9.7,0.6,29.48,SW,222,4.0,4.0,66,0.00,,SCT013,0.00,621.00,VWS V14.01,2013-02-01 17:29:00,
2013-02-01 11:33:00,10.0,0.6,29.48,NW,317,3.0,5.0,65,0.00,,SCT013,0.00,622.00,VWS V14.01,2013-02-01 17:33:00,
2013-02-01 11:34:00,10.0,0.3,29.48,SW,223,7.0,9.0,64,0.00,,SCT013,0.00,619.00,VWS V14.01,2013-02-01 17:34:00,
2013-02-01 11:36:00,9.9,-0.2,29.49,WSW,258,8.0,13.0,63,0.00,,SCT013,0.00,626.00,VWS V14.01,2013-02-01 17:36:00,
2013-02-01 11:38:00,9.7,0.0,29.48,SW,218,8.0,9.0,64,0.00,,SCT013,0.00,628.00,VWS V14.01,2013-02-01 17:38:00,
2013-02-01 11:41:00,9.5,0.1,29.48,SSW,207,2.0,8.0,65,0.00,,SCT013,0.00,628.00,VWS V14.01,2013-02-01 17:41:00,
2013-02-01 11:43:00,9.5,0.1,29.48,West,269,7.0,10.0,65,0.00,,SCT013,0.00,631.00,VWS V14.01,2013-02-01 17:43:00,
2013-02-01 11:48:00,9.9,0.8,29.48,WNW,296,0.0,4.0,66,0.00,,SCT013,0.00,635.00,VWS V14.01,2013-02-01 17:48:00,
2013-02-01 11:51:00,10.3,1.5,29.48,SW,232,4.0,5.0,67,0.00,,SCT013,0.00,640.00,VWS V14.01,2013-02-01 17:51:00,
2013-02-01 11:52:00,10.4,1.3,29.48,WSW,253,1.0,6.0,66,0.00,,SCT013,0.00,640.00,VWS V14.01,2013-02-01 17:52:00,
2013-02-01 11:53:00,10.5,1.1,29.48,SSW,209,3.0,6.0,65,0.00,,SCT013,0.00,640.00,VWS V14.01,2013-02-01 17:53:00,
2013-02-01 11:57:00,10.6,1.2,29.48,NW,309,2.0,5.0,65,0.00,,SCT013,0.00,642.00,VWS V14.01,2013-02-01 17:57:00,
2013-02-01 12:02:00,10.8,0.7,29.48,WNW,298,2.0,8.0,63,0.00,,CLR,0.00,643.00,VWS V14.01,2013-02-01 18:02:00,
2013-02-01 12:03:00,10.7,0.6,29.48,NW,305,3.0,8.0,63,0.00,,CLR,0.00,638.00,VWS V14.01,2013-02-01 18:03:00,
2013-02-01 12:05:00,10.7,0.6,29.48,WNW,291,4.0,9.0,63,0.00,,CLR,0.00,649.00,VWS V14.01,2013-02-01 18:05:00,
2013-02-01 12:06:00,10.7,0.9,29.48,SSW,210,4.0,6.0,64,0.00,,CLR,0.00,647.00,VWS V14.01,2013-02-01 18:06:00,
2013-02-01 12:10:00,11.0,1.2,29.47,WSW,238,3.0,3.0,64,0.00,,CLR,0.00,640.00,VWS V14.01,2013-02-01 18:10:00,
2013-02-01 12:11:00,11.2,1.7,29.47,SSW,213,3.0,5.0,65,0.00,,CLR,0.00,640.00,VWS V14.01,2013-02-01 18:11:00,
2013-02-01 12:13:00,11.4,1.6,29.47,WSW,258,2.0,6.0,64,0.00,,CLR,0.00,643.00,VWS V14.01,2013-02-01 18:13:00,
2013-02-01 12:18:00,11.6,1.8,29.47,SW,222,3.0,5.0,64,0.00,,CLR,0.00,649.00,VWS V14.01,2013-02-01 18:18:00,
2013-02-01 12:20:00,11.6,1.5,29.47,ESE,113,2.0,6.0,63,0.00,,CLR,0.00,666.00,VWS V14.01,2013-02-01 18:20:00,
2013-02-01 12:22:00,11.7,1.9,29.47,SW,233,5.0,9.0,64,0.00,,CLR,0.00,663.00,VWS V14.01,2013-02-01 18:22:00,
2013-02-01 12:24:00,11.7,1.5,29.47,SW,224,2.0,7.0,63,0.00,,CLR,0.00,668.00,VWS V14.01,2013-02-01 18:24:00,
2013-02-01 12:27:00,11.8,2.0,29.46,WSW,251,4.0,6.0,64,0.00,,CLR,0.00,682.00,VWS V14.01,2013-02-01 18:27:00,
2013-02-01 12:29:00,12.0,2.2,29.46,SW,234,2.0,5.0,64,0.00,,CLR,0.00,682.00,VWS V14.01,2013-02-01 18:29:00,
2013-02-01 12:30:00,12.0,2.2,29.46,WNW,297,3.0,8.0,64,0.00,,CLR,0.00,650.00,VWS V14.01,2013-02-01 18:30:00,
2013-02-01 12:32:00,12.2,2.4,29.46,NW,310,8.0,9.0,64,0.00,,CLR,0.00,652.00,VWS V14.01,2013-02-01 18:32:00,
2013-02-01 12:34:00,12.1,1.9,29.46,SSW,202,1.0,11.0,63,0.00,,CLR,0.00,638.00,VWS V14.01,2013-02-01 18:34:00,
2013-02-01 12:36:00,12.2,2.4,29.46,SSW,194,2.0,3.0,64,0.00,,CLR,0.00,635.00,VWS V14.01,2013-02-01 18:36:00,
2013-02-01 12:39:00,12.6,2.8,29.46,SW,236,4.0,6.0,64,0.00,,CLR,0.00,633.00,VWS V14.01,2013-02-01 18:39:00,
2013-02-01 12:40:00,12.7,2.5,29.45,SW,234,4.0,8.0,63,0.00,,CLR,0.00,626.00,VWS V14.01,2013-02-01 18:40:00,
2013-02-01 12:44:00,13.0,3.1,29.45,NW,313,7.0,7.0,64,0.00,,CLR,0.00,640.00,VWS V14.01,2013-02-01 18:44:00,
2013-02-01 12:45:00,13.0,2.8,29.45,WNW,298,10.0,11.0,63,0.00,,CLR,0.00,635.00,VWS V14.01,2013-02-01 18:45:00,
2013-02-01 12:49:00,12.8,2.2,29.45,SW,219,4.0,7.0,62,0.00,,CLR,0.00,633.00,VWS V14.01,2013-02-01 18:49:00,
2013-02-01 12:52:00,12.8,2.2,29.45,SSW,203,4.0,6.0,62,0.00,,CLR,0.00,635.00,VWS V14.01,2013-02-01 18:52:00,
2013-02-01 12:53:00,12.8,2.2,29.45,West,265,3.0,5.0,62,0.00,,CLR,0.00,631.00,VWS V14.01,2013-02-01 18:53:00,
2013-02-01 12:54:00,12.9,2.3,29.45,West,271,6.0,7.0,62,0.00,,CLR,0.00,629.00,VWS V14.01,2013-02-01 18:54:00,
2013-02-01 12:56:00,13.1,2.5,29.45,SW,214,7.0,8.0,62,0.00,,CLR,0.00,631.00,VWS V14.01,2013-02-01 18:56:00,
2013-02-01 12:57:00,13.0,2.1,29.45,WSW,242,1.0,7.0,61,0.00,,CLR,0.00,626.00,VWS V14.01,2013-02-01 18:57:00,
2013-02-01 12:58:00,13.0,2.1,29.45,SW,230,3.0,7.0,61,0.00,,CLR,0.00,626.00,VWS V14.01,2013-02-01 18:58:00,
2013-02-01 13:00:00,13.2,2.6,29.44,SW,217,2.0,4.0,62,0.00,,CLR,0.00,603.00,VWS V14.01,2013-02-01 19:00:00,
2013-02-01 13:04:00,13.6,2.7,29.44,SW,221,1.0,8.0,61,0.00,,SCT028,0.00,555.00,VWS V14.01,2013-02-01 19:04:00,
2013-02-01 13:05:00,13.6,2.7,29.44,WSW,257,3.0,4.0,61,0.00,,SCT028,0.00,512.00,VWS V14.01,2013-02-01 19:05:00,
2013-02-01 13:06:00,13.6,2.7,29.44,SW,227,2.0,6.0,61,0.00,,SCT028,0.00,422.00,VWS V14.01,2013-02-01 19:06:00,
2013-02-01 13:09:00,13.5,2.6,29.44,West,263,4.0,7.0,61,0.00,,SCT028,0.00,56.00,VWS V14.01,2013-02-01 19:09:00,
2013-02-01 13:10:00,13.5,2.9,29.44,SW,234,2.0,5.0,62,0.00,,SCT028,0.00,56.00,VWS V14.01,2013-02-01 19:10:00,
2013-02-01 13:12:00,13.5,2.6,29.44,SW,222,6.0,8.0,61,0.00,,SCT028,0.00,90.00,VWS V14.01,2013-02-01 19:12:00,
2013-02-01 13:16:00,13.7,3.1,29.44,West,275,3.0,6.0,62,0.00,,SCT028,0.00,548.00,VWS V14.01,2013-02-01 19:16:00,
2013-02-01 13:17:00,13.8,2.8,29.44,West,275,1.0,5.0,61,0.00,,SCT028,0.00,550.00,VWS V14.01,2013-02-01 19:17:00,
2013-02-01 13:19:00,13.8,2.8,29.44,SSW,206,0.0,6.0,61,0.00,,SCT028,0.00,554.00,VWS V14.01,2013-02-01 19:19:00,
2013-02-01 13:21:00,14.0,3.0,29.44,WSW,250,2.0,6.0,61,0.00,,SCT028,0.00,559.00,VWS V14.01,2013-02-01 19:21:00,
2013-02-01 13:22:00,14.1,3.1,29.44,SSW,213,8.0,9.0,61,0.00,,SCT028,0.00,561.00,VWS V14.01,2013-02-01 19:22:00,
2013-02-01 13:26:00,14.1,3.1,29.44,West,271,7.0,12.0,61,0.00,,SCT028,0.00,573.00,VWS V14.01,2013-02-01 19:26:00,
2013-02-01 13:28:00,14.1,2.8,29.43,West,268,2.0,4.0,60,0.00,,SCT028,0.00,585.00,VWS V14.01,2013-02-01 19:28:00,
2013-02-01 13:31:00,14.3,3.0,29.43,WNW,288,2.0,5.0,60,0.00,,SCT028,0.00,577.00,VWS V14.01,2013-02-01 19:31:00,
2013-02-01 13:33:00,14.3,3.0,29.43,WNW,296,2.0,12.0,60,0.00,,SCT028,0.00,568.00,VWS V14.01,2013-02-01 19:33:00,
2013-02-01 13:35:00,14.3,3.0,29.43,WNW,300,3.0,9.0,60,0.00,,SCT028,0.00,570.00,VWS V14.01,2013-02-01 19:35:00,
2013-02-01 13:36:00,14.3,3.0,29.43,WNW,302,4.0,6.0,60,0.00,,SCT028,0.00,577.00,VWS V14.01,2013-02-01 19:36:00,
2013-02-01 13:37:00,14.3,3.0,29.43,SW,219,6.0,6.0,60,0.00,,SCT028,0.00,570.00,VWS V14.01,2013-02-01 19:37:00,
2013-02-01 13:40:00,14.3,3.0,29.43,SW,226,5.0,9.0,60,0.00,,SCT028,0.00,559.00,VWS V14.01,2013-02-01 19:40:00,
2013-02-01 13:41:00,14.4,3.1,29.43,SSW,196,2.0,5.0,60,0.00,,SCT028,0.00,554.00,VWS V14.01,2013-02-01 19:41:00,
2013-02-01 13:46:00,14.9,3.5,29.43,West,261,2.0,3.0,60,0.00,,SCT028,0.00,547.00,VWS V14.01,2013-02-01 19:46:00,
2013-02-01 13:47:00,15.0,3.6,29.42,WNW,298,2.0,5.0,60,0.00,,SCT028,0.00,541.00,VWS V14.01,2013-02-01 19:47:00,
2013-02-01 13:48:00,15.1,3.4,29.42,NW,315,2.0,5.0,59,0.00,,SCT028,0.00,538.00,VWS V14.01,2013-02-01 19:48:00,
2013-02-01 13:51:00,15.2,3.1,29.43,SW,229,5.0,15.0,58,0.00,,SCT028,0.00,527.00,VWS V14.01,2013-02-01 19:51:00,
2013-02-01 13:53:00,15.1,3.0,29.43,West,266,5.0,5.0,58,0.00,,SCT028,0.00,522.00,VWS V14.01,2013-02-01 19:53:00,
2013-02-01 13:57:00,15.0,2.5,29.42,South,182,6.0,6.0,57,0.00,,SCT028,0.00,508.00,VWS V14.01,2013-02-01 19:57:00,
2013-02-01 13:58:00,15.0,2.9,29.42,WSW,240,5.0,6.0,58,0.00,,SCT028,0.00,504.00,VWS V14.01,2013-02-01 19:58:00,
2013-02-01 14:01:00,15.0,3.3,29.42,West,281,8.0,10.0,59,0.00,,CLR,0.00,504.00,VWS V14.01,2013-02-01 20:01:00,
2013-02-01 14:02:00,15.2,3.5,29.42,SW,221,4.0,8.0,59,0.00,,CLR,0.00,499.00,VWS V14.01,2013-02-01 20:02:00,
2013-02-01 14:03:00,15.3,3.5,29.42,SSW,196,5.0,7.0,59,0.00,,CLR,0.00,497.00,VWS V14.01,2013-02-01 20:03:00,
2013-02-01 14:07:00,15.5,3.4,29.42,WNW,294,4.0,4.0,58,0.00,,CLR,0.00,485.00,VWS V14.01,2013-02-01 20:07:00,
2013-02-01 14:08:00,15.6,3.8,29.42,SE,125,0.0,4.0,59,0.00,,CLR,0.00,483.00,VWS V14.01,2013-02-01 20:08:00,
2013-02-01 14:11:00,16.0,3.8,29.42,SW,223,7.0,7.0,58,0.00,,CLR,0.00,480.00,VWS V14.01,2013-02-01 20:11:00,
2013-02-01 14:12:00,16.1,3.9,29.42,WNW,299,2.0,8.0,58,0.00,,CLR,0.00,480.00,VWS V14.01,2013-02-01 20:12:00,
2013-02-01 14:13:00,16.1,3.9,29.42,WSW,252,0.0,4.0,58,0.00,,CLR,0.00,476.00,VWS V14.01,2013-02-01 20:13:00,
2013-02-01 14:14:00,16.2,4.0,29.42,WSW,238,4.0,5.0,58,0.00,,CLR,0.00,478.00,VWS V14.01,2013-02-01 20:14:00,
2013-02-01 14:16:00,16.1,3.6,29.42,WNW,290,1.0,7.0,57,0.00,,CLR,0.00,471.00,VWS V14.01,2013-02-01 20:16:00,
2013-02-01 14:19:00,15.9,3.4,29.42,SW,222,4.0,4.0,57,0.00,,CLR,0.00,471.00,VWS V14.01,2013-02-01 20:19:00,
2013-02-01 14:21:00,15.8,3.3,29.42,NW,313,7.0,7.0,57,0.00,,CLR,0.00,469.00,VWS V14.01,2013-02-01 20:21:00,
2013-02-01 14:23:00,15.7,3.2,29.41,WNW,294,2.0,7.0,57,0.00,,CLR,0.00,478.00,VWS V14.01,2013-02-01 20:23:00,
2013-02-01 14:27:00,15.9,3.8,29.41,NW,304,7.0,9.0,58,0.00,,CLR,0.00,490.00,VWS V14.01,2013-02-01 20:27:00,
2013-02-01 14:28:00,16.0,3.5,29.42,NW,306,3.0,7.0,57,0.00,,CLR,0.00,490.00,VWS V14.01,2013-02-01 20:28:00,
2013-02-01 14:29:00,16.0,3.5,29.42,NW,306,0.0,6.0,57,0.00,,CLR,0.00,489.00,VWS V14.01,2013-02-01 20:29:00,
2013-02-01 14:34:00,16.2,3.7,29.42,SW,218,3.0,6.0,57,0.00,,CLR,0.00,480.00,VWS V14.01,2013-02-01 20:34:00,
2013-02-01 14:35:00,16.2,3.7,29.42,SW,225,3.0,4.0,57,0.00,,CLR,0.00,478.00,VWS V14.01,2013-02-01 20:35:00,
2013-02-01 14:36:00,16.2,3.7,29.42,SSW,204,4.0,4.0,57,0.00,,CLR,0.00,475.00,VWS V14.01,2013-02-01 20:36:00,
2013-02-01 14:39:00,16.4,4.2,29.42,SW,215,1.0,5.0,58,0.00,,CLR,0.00,471.00,VWS V14.01,2013-02-01 20:39:00,
2013-02-01 14:41:00,16.6,4.0,29.42,West,261,1.0,10.0,57,0.00,,CLR,0.00,459.00,VWS V14.01,2013-02-01 20:41:00,
2013-02-01 14:42:00,16.6,4.0,29.42,NW,309,5.0,5.0,57,0.00,,CLR,0.00,454.00,VWS V14.01,2013-02-01 20:42:00,
2013-02-01 14:44:00,16.7,3.7,29.41,SW,221,3.0,8.0,56,0.00,,CLR,0.00,432.00,VWS V14.01,2013-02-01 20:44:00,
2013-02-01 14:46:00,16.6,3.7,29.41,WSW,247,1.0,4.0,56,0.00,,CLR,0.00,413.00,VWS V14.01,2013-02-01 20:46:00,
2013-02-01 14:47:00,16.6,4.0,29.41,WSW,238,6.0,6.0,57,0.00,,CLR,0.00,429.00,VWS V14.01,2013-02-01 20:47:00,
2013-02-01 14:50:00,16.6,4.0,29.41,WSW,252,3.0,6.0,57,0.00,,CLR,0.00,348.00,VWS V14.01,2013-02-01 20:50:00,
2013-02-01 14:51:00,16.6,4.0,29.41,SSW,210,3.0,6.0,57,0.00,,CLR,0.00,380.00,VWS V14.01,2013-02-01 20:51:00,
2013-02-01 14:54:00,16.8,4.2,29.41,SW,234,4.0,8.0,57,0.00,,CLR,0.00,410.00,VWS V14.01,2013-02-01 20:54:00,
2013-02-01 14:56:00,16.7,3.7,29.41,WSW,241,1.0,7.0,56,0.00,,CLR,0.00,390.00,VWS V14.01,2013-02-01 20:56:00,
2013-02-01 14:59:00,16.7,4.1,29.41,WSW,246,0.0,3.0,57,0.00,,CLR,0.00,366.00,VWS V14.01,2013-02-01 20:59:00,
2013-02-01 15:02:00,16.9,4.3,29.41,SW,218,5.0,9.0,57,0.00,,CLR,0.00,371.00,VWS V14.01,2013-02-01 21:02:00,
2013-02-01 15:03:00,16.9,4.3,29.41,West,267,9.0,9.0,57,0.00,,CLR,0.00,401.00,VWS V14.01,2013-02-01 21:03:00,
2013-02-01 15:05:00,16.9,4.3,29.41,West,275,1.0,5.0,57,0.00,,CLR,0.00,383.00,VWS V14.01,2013-02-01 21:05:00,
2013-02-01 15:06:00,16.9,4.3,29.41,WNW,282,4.0,5.0,57,0.00,,CLR,0.00,364.00,VWS V14.01,2013-02-01 21:06:00,
2013-02-01 15:07:00,16.8,4.2,29.41,SE,140,2.0,10.0,57,0.00,,CLR,0.00,359.00,VWS V14.01,2013-02-01 21:07:00,
2013-02-01 15:10:00,16.9,4.3,29.41,SW,233,3.0,7.0,57,0.00,,CLR,0.00,376.00,VWS V14.01,2013-02-01 21:10:00,
2013-02-01 15:11:00,17.0,4.4,29.41,SW,235,4.0,5.0,57,0.00,,CLR,0.00,364.00,VWS V14.01,2013-02-01 21:11:00,
2013-02-01 15:15:00,17.2,4.6,29.41,SW,215,1.0,5.0,57,0.00,,CLR,0.00,332.00,VWS V14.01,2013-02-01 21:15:00,
2013-02-01 15:16:00,17.3,4.7,29.41,North,355,3.0,6.0,57,0.00,,CLR,0.00,336.00,VWS V14.01,2013-02-01 21:16:00,
2013-02-01 15:20:00,17.3,4.7,29.40,WSW,238,2.0,6.0,57,0.00,,CLR,0.00,292.00,VWS V14.01,2013-02-01 21:20:00,
2013-02-01 15:22:00,17.4,4.8,29.40,WSW,237,4.0,5.0,57,0.00,,CLR,0.00,279.00,VWS V14.01,2013-02-01 21:22:00,
2013-02-01 15:23:00,17.3,4.7,29.40,WNW,288,6.0,10.0,57,0.00,,CLR,0.00,271.00,VWS V14.01,2013-02-01 21:23:00,
2013-02-01 15:27:00,17.4,4.8,29.40,SW,226,2.0,5.0,57,0.00,,CLR,0.00,287.00,VWS V14.01,2013-02-01 21:27:00,
2013-02-01 15:28:00,17.4,4.8,29.40,WNW,298,3.0,6.0,57,0.00,,CLR,0.00,288.00,VWS V14.01,2013-02-01 21:28:00,
2013-02-01 15:29:00,17.4,4.4,29.40,SW,223,3.0,3.0,56,0.00,,CLR,0.00,318.00,VWS V14.01,2013-02-01 21:29:00,
2013-02-01 15:32:00,17.6,4.6,29.40,SSW,212,0.0,5.0,56,0.00,,CLR,0.00,323.00,VWS V14.01,2013-02-01 21:32:00,
2013-02-01 15:33:00,17.7,5.1,29.40,SW,222,5.0,5.0,57,0.00,,CLR,0.00,316.00,VWS V14.01,2013-02-01 21:33:00,
2013-02-01 15:37:00,18.0,5.0,29.40,West,264,0.0,8.0,56,0.00,,CLR,0.00,315.00,VWS V14.01,2013-02-01 21:37:00,
2013-02-01 15:38:00,18.0,5.0,29.40,West,271,0.0,5.0,56,0.00,,CLR,0.00,301.00,VWS V14.01,2013-02-01 21:38:00,
2013-02-01 15:41:00,18.0,5.0,29.39,SW,234,1.0,2.0,56,0.00,,CLR,0.00,244.00,VWS V14.01,2013-02-01 21:41:00,
2013-02-01 15:43:00,18.2,5.9,29.39,SE,138,0.0,4.0,58,0.00,,CLR,0.00,229.00,VWS V14.01,2013-02-01 21:43:00,
2013-02-01 15:44:00,18.3,5.6,29.39,SE,138,0.0,1.0,57,0.00,,CLR,0.00,190.00,VWS V14.01,2013-02-01 21:44:00,
2013-02-01 15:46:00,18.3,5.6,29.39,WSW,254,3.0,4.0,57,0.00,,CLR,0.00,165.00,VWS V14.01,2013-02-01 21:46:00,
2013-02-01 15:49:00,18.1,5.4,29.39,SW,236,1.0,4.0,57,0.00,,CLR,0.00,197.00,VWS V14.01,2013-02-01 21:49:00,
2013-02-01 15:51:00,18.1,5.8,29.39,SE,134,1.0,2.0,58,0.00,,CLR,0.00,237.00,VWS V14.01,2013-02-01 21:51:00,
2013-02-01 15:52:00,18.2,5.9,29.39,WSW,242,0.0,4.0,58,0.00,,CLR,0.00,223.00,VWS V14.01,2013-02-01 21:52:00,
2013-02-01 15:54:00,18.2,5.5,29.39,SW,216,0.0,8.0,57,0.00,,CLR,0.00,200.00,VWS V14.01,2013-02-01 21:54:00,
2013-02-01 15:55:00,18.3,5.6,29.39,SSE,148,1.0,2.0,57,0.00,,CLR,0.00,204.00,VWS V14.01,2013-02-01 21:55:00,
2013-02-01 15:56:00,18.4,5.7,29.39,SW,217,4.0,5.0,57,0.00,,CLR,0.00,202.00,VWS V14.01,2013-02-01 21:56:00,
2013-02-01 16:00:00,18.3,5.6,29.38,West,259,0.0,7.0,57,0.00,,CLR,0.00,40.00,VWS V14.01,2013-02-01 22:00:00,
2013-02-01 16:01:00,18.1,5.4,29.38,WSW,253,0.0,5.0,57,0.00,,CLR,0.00,30.00,VWS V14.01,2013-02-01 22:01:00,
2013-02-01 16:04:00,17.7,5.1,29.39,WSW,246,3.0,8.0,57,0.00,,CLR,0.00,25.00,VWS V14.01,2013-02-01 22:04:00,
2013-02-01 16:06:00,17.5,5.3,29.39,SSW,195,1.0,4.0,58,0.00,,CLR,0.00,26.00,VWS V14.01,2013-02-01 22:06:00,
2013-02-01 16:08:00,17.2,5.0,29.39,NW,304,7.0,7.0,58,0.00,,CLR,0.00,51.00,VWS V14.01,2013-02-01 22:08:00,
2013-02-01 16:09:00,17.2,5.0,29.39,WNW,300,0.0,7.0,58,0.00,,CLR,0.00,67.00,VWS V14.01,2013-02-01 22:09:00,
2013-02-01 16:12:00,16.9,5.1,29.39,West,263,1.0,4.0,59,0.00,,CLR,0.00,70.00,VWS V14.01,2013-02-01 22:12:00,
2013-02-01 16:13:00,16.9,5.1,29.39,NW,305,1.0,5.0,59,0.00,,CLR,0.00,93.00,VWS V14.01,2013-02-01 22:13:00,
2013-02-01 16:17:00,16.9,5.1,29.38,South,171,7.0,7.0,59,0.00,,CLR,0.00,81.00,VWS V14.01,2013-02-01 22:17:00,
2013-02-01 16:18:00,16.9,5.1,29.38,West,269,2.0,7.0,59,0.00,,CLR,0.00,88.00,VWS V14.01,2013-02-01 22:18:00,
2013-02-01 16:21:00,17.0,5.2,29.39,WNW,298,1.0,5.0,59,0.00,,CLR,0.00,69.00,VWS V14.01,2013-02-01 22:21:00,
2013-02-01 16:22:00,17.0,5.2,29.39,SSW,213,1.0,4.0,59,0.00,,CLR,0.00,63.00,VWS V14.01,2013-02-01 22:22:00,
2013-02-01 16:24:00,17.0,4.8,29.39,WSW,238,6.0,7.0,58,0.00,,CLR,0.00,53.00,VWS V14.01,2013-02-01 22:24:00,
2013-02-01 16:26:00,16.9,4.7,29.39,SW,236,1.0,5.0,58,0.00,,CLR,0.00,47.00,VWS V14.01,2013-02-01 22:26:00,
2013-02-01 16:27:00,16.8,5.0,29.39,WNW,284,3.0,6.0,59,0.00,,CLR,0.00,46.00,VWS V14.01,2013-02-01 22:27:00,
2013-02-01 16:31:00,16.8,5.3,29.39,SW,218,2.0,5.0,60,0.00,,CLR,0.00,32.00,VWS V14.01,2013-02-01 22:31:00,
2013-02-01 16:32:00,16.9,5.4,29.39,WSW,246,3.0,6.0,60,0.00,,CLR,0.00,26.00,VWS V14.01,2013-02-01 22:32:00,
2013-02-01 16:33:00,16.9,5.1,29.39,WSW,242,2.0,8.0,59,0.00,,CLR,0.00,23.00,VWS V14.01,2013-02-01 22:33:00,
2013-02-01 16:36:00,16.9,5.4,29.39,SSW,213,6.0,6.0,60,0.00,,CLR,0.00,21.00,VWS V14.01,2013-02-01 22:36:00,
2013-02-01 16:37:00,16.9,5.1,29.39,SSW,192,3.0,10.0,59,0.00,,CLR,0.00,19.00,VWS V14.01,2013-02-01 22:37:00,
2013-02-01 16:39:00,16.8,5.0,29.39,SW,229,3.0,8.0,59,0.00,,CLR,0.00,19.00,VWS V14.01,2013-02-01 22:39:00,
2013-02-01 16:41:00,16.8,5.0,29.39,WNW,302,7.0,7.0,59,0.00,,CLR,0.00,18.00,VWS V14.01,2013-02-01 22:41:00,
2013-02-01 16:42:00,16.8,5.0,29.39,NW,321,2.0,7.0,59,0.00,,CLR,0.00,16.00,VWS V14.01,2013-02-01 22:42:00,
2013-02-01 16:44:00,16.9,5.4,29.39,NW,310,0.0,4.0,60,0.00,,CLR,0.00,14.00,VWS V14.01,2013-02-01 22:44:00,
2013-02-01 16:46:00,16.9,5.4,29.39,WNW,303,1.0,2.0,60,0.00,,CLR,0.00,14.00,VWS V14.01,2013-02-01 22:46:00,
2013-02-01 16:47:00,16.9,5.4,29.39,West,268,1.0,4.0,60,0.00,,CLR,0.00,14.00,VWS V14.01,2013-02-01 22:47:00,
2013-02-01 16:48:00,17.0,5.5,29.39,SSW,196,1.0,3.0,60,0.00,,CLR,0.00,14.00,VWS V14.01,2013-02-01 22:48:00,
2013-02-01 16:53:00,17.0,5.5,29.39,NW,310,0.0,2.0,60,0.00,,CLR,0.00,9.00,VWS V14.01,2013-02-01 22:53:00,
2013-02-01 16:54:00,17.0,5.5,29.39,NW,311,0.0,1.0,60,0.00,,CLR,0.00,9.00,VWS V14.01,2013-02-01 22:54:00,
2013-02-01 16:55:00,17.1,5.6,29.39,WNW,298,1.0,4.0,60,0.00,,CLR,0.00,7.00,VWS V14.01,2013-02-01 22:55:00,
2013-02-01 16:58:00,17.0,5.5,29.39,WSW,244,0.0,4.0,60,0.00,,CLR,0.00,7.00,VWS V14.01,2013-02-01 22:58:00,
2013-02-01 17:00:00,17.0,5.5,29.39,WSW,250,2.0,4.0,60,0.00,,CLR,0.00,5.00,VWS V14.01,2013-02-01 23:00:00,
2013-02-01 17:02:00,17.0,5.5,29.39,West,263,4.0,7.0,60,0.00,,CLR,0.00,5.00,VWS V14.01,2013-02-01 23:02:00,
2013-02-01 17:04:00,17.0,5.5,29.39,SW,236,0.0,3.0,60,0.00,,CLR,0.00,0.00,VWS V14.01,2013-02-01 23:04:00,
2013-02-01 17:07:00,17.0,5.5,29.39,SW,215,0.0,10.0,60,0.00,,CLR,0.00,0.00,VWS V14.01,2013-02-01 23:07:00,
2013-02-01 17:08:00,17.0,5.5,29.39,SW,219,2.0,2.0,60,0.00,,CLR,0.00,0.00,VWS V14.01,2013-02-01 23:08:00,
2013-02-01 17:11:00,17.0,5.2,29.39,SW,217,4.0,6.0,59,0.00,,CLR,0.00,0.00,VWS V14.01,2013-02-01 23:11:00,
2013-02-01 17:12:00,17.0,5.2,29.39,West,263,1.0,4.0,59,0.00,,CLR,0.00,0.00,VWS V14.01,2013-02-01 23:12:00,
2013-02-01 17:14:00,17.0,5.2,29.38,SSW,204,2.0,5.0,59,0.00,,CLR,0.00,0.00,VWS V14.01,2013-02-01 23:14:00,
2013-02-01 17:17:00,17.0,5.2,29.38,NNW,346,0.0,6.0,59,0.00,,CLR,0.00,0.00,VWS V14.01,2013-02-01 23:17:00,
2013-02-01 17:18:00,17.0,5.2,29.38,SSW,213,5.0,5.0,59,0.00,,CLR,0.00,0.00,VWS V14.01,2013-02-01 23:18:00,
2013-02-01 17:20:00,16.9,5.1,29.38,SW,227,1.0,5.0,59,0.00,,CLR,0.00,0.00,VWS V14.01,2013-02-01 23:20:00,
2013-02-01 17:23:00,16.9,4.7,29.38,SW,224,2.0,5.0,58,0.00,,CLR,0.00,0.00,VWS V14.01,2013-02-01 23:23:00,
2013-02-01 17:24:00,16.9,4.7,29.38,SW,223,4.0,5.0,58,0.00,,CLR,0.00,0.00,VWS V14.01,2013-02-01 23:24:00,
2013-02-01 17:25:00,16.9,4.7,29.38,SW,225,2.0,6.0,58,0.00,,CLR,0.00,0.00,VWS V14.01,2013-02-01 23:25:00,
2013-02-01 17:27:00,16.9,4.7,29.38,SW,236,2.0,4.0,58,0.00,,CLR,0.00,0.00,VWS V14.01,2013-02-01 23:27:00,
2013-02-01 17:29:00,17.0,5.2,29.38,WSW,244,0.0,1.0,59,0.00,,CLR,0.00,0.00,VWS V14.01,2013-02-01 23:29:00,
2013-02-01 17:32:00,17.0,5.2,29.38,SW,226,5.0,6.0,59,0.00,,CLR,0.00,0.00,VWS V14.01,2013-02-01 23:32:00,
2013-02-01 17:33:00,17.0,5.2,29.38,SW,222,0.0,8.0,59,0.00,,CLR,0.00,0.00,VWS V14.01,2013-02-01 23:33:00,
2013-02-01 17:37:00,17.0,5.2,29.38,WSW,237,3.0,6.0,59,0.00,,CLR,0.00,0.00,VWS V14.01,2013-02-01 23:37:00,
2013-02-01 17:38:00,17.0,5.2,29.38,SW,234,6.0,6.0,59,0.00,,CLR,0.00,0.00,VWS V14.01,2013-02-01 23:38:00,
2013-02-01 17:42:00,17.0,5.2,29.38,SW,234,0.0,5.0,59,0.00,,CLR,0.00,0.00,VWS V14.01,2013-02-01 23:42:00,
2013-02-01 17:43:00,17.0,5.2,29.38,West,267,1.0,3.0,59,0.00,,CLR,0.00,0.00,VWS V14.01,2013-02-01 23:43:00,
2013-02-01 17:49:00,17.2,5.7,29.37,NNW,335,2.0,5.0,60,0.00,,CLR,0.00,0.00,VWS V14.01,2013-02-01 23:49:00,
2013-02-01 17:51:00,17.2,5.3,29.38,SW,223,0.0,6.0,59,0.00,,CLR,0.00,0.00,VWS V14.01,2013-02-01 23:51:00,
2013-02-01 17:56:00,17.3,5.4,29.37,South,185,5.0,5.0,59,0.00,,CLR,0.00,0.00,VWS V14.01,2013-02-01 23:56:00,
2013-02-01 17:57:00,17.3,5.8,29.37,WSW,240,4.0,5.0,60,0.00,,CLR,0.00,0.00,VWS V14.01,2013-02-01 23:57:00,
2013-02-01 18:02:00,17.3,5.8,29.38,WSW,240,0.0,2.0,60,0.00,,OVC050,0.00,0.00,VWS V14.01,2013-02-02 00:02:00,
2013-02-01 18:03:00,17.3,5.8,29.38,West,263,1.0,6.0,60,0.00,,OVC050,0.00,0.00,VWS V14.01,2013-02-02 00:03:00,
2013-02-01 18:05:00,17.3,6.2,29.37,ENE,76,0.0,3.0,61,0.00,,OVC050,0.00,0.00,VWS V14.01,2013-02-02 00:05:00,
2013-02-01 18:08:00,17.4,6.3,29.37,WSW,253,0.0,3.0,61,0.00,,OVC050,0.00,0.00,VWS V14.01,2013-02-02 00:08:00,
2013-02-01 18:10:00,17.5,6.4,29.37,WSW,246,2.0,4.0,61,0.00,,OVC050,0.00,0.00,VWS V14.01,2013-02-02 00:10:00,
2013-02-01 18:11:00,17.5,6.4,29.37,WSW,246,0.0,2.0,61,0.00,,OVC050,0.00,0.00,VWS V14.01,2013-02-02 00:11:00,
2013-02-01 18:14:00,17.5,6.4,29.37,West,260,2.0,4.0,61,0.00,,OVC050,0.00,0.00,VWS V14.01,2013-02-02 00:14:00,
2013-02-01 18:18:00,17.6,6.8,29.37,SSW,198,2.0,3.0,62,0.00,,OVC050,0.00,0.00,VWS V14.01,2013-02-02 00:18:00,
2013-02-01 18:19:00,17.6,6.8,29.37,WSW,256,3.0,3.0,62,0.00,,OVC050,0.00,0.00,VWS V14.01,2013-02-02 00:19:00,
2013-02-01 18:21:00,17.7,6.6,29.37,WSW,256,2.0,4.0,61,0.00,,OVC050,0.00,0.00,VWS V14.01,2013-02-02 00:21:00,
2013-02-01 18:23:00,17.7,6.6,29.37,SSW,204,0.0,3.0,61,0.00,,OVC050,0.00,0.00,VWS V14.01,2013-02-02 00:23:00,
2013-02-01 18:25:00,17.7,6.6,29.38,West,274,3.0,6.0,61,0.00,,OVC050,0.00,0.00,VWS V14.01,2013-02-02 00:25:00,
2013-02-01 18:28:00,17.6,6.1,29.38,West,265,1.0,5.0,60,0.00,,OVC050,0.00,0.00,VWS V14.01,2013-02-02 00:28:00,
2013-02-01 18:32:00,17.6,6.1,29.38,WSW,238,0.0,3.0,60,0.00,,OVC060,0.00,0.00,VWS V14.01,2013-02-02 00:32:00,
2013-02-01 18:33:00,17.6,6.4,29.38,SW,228,2.0,4.0,61,0.00,,OVC060,0.00,0.00,VWS V14.01,2013-02-02 00:33:00,
2013-02-01 18:34:00,17.7,6.6,29.38,SW,227,0.0,3.0,61,0.00,,OVC060,0.00,0.00,VWS V14.01,2013-02-02 00:34:00,
2013-02-01 18:37:00,17.7,6.6,29.38,SW,221,4.0,5.0,61,0.00,,OVC060,0.00,0.00,VWS V14.01,2013-02-02 00:37:00,
2013-02-01 18:38:00,17.7,6.2,29.38,SE,140,1.0,5.0,60,0.00,,OVC060,0.00,0.00,VWS V14.01,2013-02-02 00:38:00,
2013-02-01 18:39:00,17.7,6.2,29.38,SW,221,0.0,4.0,60,0.00,,OVC060,0.00,0.00,VWS V14.01,2013-02-02 00:39:00,
2013-02-01 18:42:00,17.7,6.6,29.38,WSW,241,0.0,1.0,61,0.00,,OVC060,0.00,0.00,VWS V14.01,2013-02-02 00:42:00,
2013-02-01 18:43:00,17.7,6.6,29.38,WSW,241,2.0,2.0,61,0.00,,OVC060,0.00,0.00,VWS V14.01,2013-02-02 00:43:00,
2013-02-01 18:45:00,17.7,6.2,29.38,WSW,237,4.0,5.0,60,0.00,,OVC060,0.00,0.00,VWS V14.01,2013-02-02 00:45:00,
2013-02-01 18:47:00,17.7,6.6,29.37,WNW,298,2.0,4.0,61,0.00,,OVC060,0.00,0.00,VWS V14.01,2013-02-02 00:47:00,
2013-02-01 18:49:00,17.8,6.6,29.37,SW,236,2.0,4.0,61,0.00,,OVC060,0.00,0.00,VWS V14.01,2013-02-02 00:49:00,
2013-02-01 18:50:00,17.8,6.6,29.37,WNW,290,0.0,4.0,61,0.00,,OVC060,0.00,0.00,VWS V14.01,2013-02-02 00:50:00,
2013-02-01 18:53:00,17.8,6.6,29.37,SW,232,3.0,3.0,61,0.00,,OVC060,0.00,0.00,VWS V14.01,2013-02-02 00:53:00,
2013-02-01 18:54:00,17.8,6.6,29.37,SW,221,1.0,5.0,61,0.00,,OVC060,0.00,0.00,VWS V14.01,2013-02-02 00:54:00,
2013-02-01 18:57:00,17.9,6.7,29.37,West,265,3.0,5.0,61,0.00,,OVC060,0.00,0.00,VWS V14.01,2013-02-02 00:57:00,
2013-02-01 18:59:00,17.9,6.7,29.37,WSW,240,0.0,1.0,61,0.00,,OVC060,0.00,0.00,VWS V14.01,2013-02-02 00:59:00,
2013-02-01 19:01:00,17.9,7.1,29.37,SSE,167,1.0,1.0,62,0.00,,OVC060,0.00,0.00,VWS V14.01,2013-02-02 01:01:00,
2013-02-01 19:02:00,17.9,7.1,29.37,WSW,256,1.0,3.0,62,0.00,,OVC060,0.00,0.00,VWS V14.01,2013-02-02 01:02:00,
2013-02-01 19:07:00,18.0,6.8,29.37,SSW,207,1.0,7.0,61,0.00,,OVC060,0.00,0.00,VWS V14.01,2013-02-02 01:07:00,
2013-02-01 19:08:00,18.0,6.8,29.37,WSW,245,3.0,3.0,61,0.00,,OVC060,0.00,0.00,VWS V14.01,2013-02-02 01:08:00,
2013-02-01 19:09:00,18.0,6.8,29.36,WSW,245,1.0,3.0,61,0.00,,OVC060,0.00,0.00,VWS V14.01,2013-02-02 01:09:00,
2013-02-01 19:14:00,17.9,6.7,29.36,SW,229,3.0,4.0,61,0.00,,OVC060,0.00,0.00,VWS V14.01,2013-02-02 01:14:00,
2013-02-01 19:15:00,17.9,6.7,29.36,South,169,0.0,6.0,61,0.00,,OVC060,0.00,0.00,VWS V14.01,2013-02-02 01:15:00,
2013-02-01 19:17:00,17.9,6.7,29.36,SW,219,0.0,1.0,61,0.00,,OVC060,0.00,0.00,VWS V14.01,2013-02-02 01:17:00,
2013-02-01 19:21:00,18.0,7.2,29.36,SW,222,2.0,5.0,62,0.00,,OVC060,0.00,0.00,VWS V14.01,2013-02-02 01:21:00,
2013-02-01 19:22:00,18.0,7.2,29.36,West,275,0.0,2.0,62,0.00,,OVC060,0.00,0.00,VWS V14.01,2013-02-02 01:22:00,
2013-02-01 19:23:00,18.0,7.2,29.36,South,176,1.0,1.0,62,0.00,,OVC060,0.00,0.00,VWS V14.01,2013-02-02 01:23:00,
2013-02-01 19:26:00,18.0,7.2,29.36,WSW,255,1.0,3.0,62,0.00,,OVC060,0.00,0.00,VWS V14.01,2013-02-02 01:26:00,
2013-02-01 19:28:00,18.0,7.2,29.36,West,265,2.0,5.0,62,0.00,,OVC060,0.00,0.00,VWS V14.01,2013-02-02 01:28:00,
2013-02-01 19:30:00,18.0,7.2,29.35,SW,218,0.0,3.0,62,0.00,,OVC060,0.00,0.00,VWS V14.01,2013-02-02 01:30:00,
2013-02-01 19:33:00,18.0,7.2,29.36,SW,219,0.0,2.0,62,0.00,,OVC060,0.00,0.00,VWS V14.01,2013-02-02 01:33:00,
2013-02-01 19:36:00,18.1,7.3,29.35,WSW,248,0.0,4.0,62,0.00,,OVC060,0.00,0.00,VWS V14.01,2013-02-02 01:36:00,
2013-02-01 19:37:00,18.1,7.3,29.35,WSW,248,0.0,1.0,62,0.00,,OVC060,0.00,0.00,VWS V14.01,2013-02-02 01:37:00,
2013-02-01 19:42:00,18.1,7.3,29.35,SSW,192,0.0,2.0,62,0.00,,OVC060,0.00,0.00,VWS V14.01,2013-02-02 01:42:00,
2013-02-01 19:43:00,18.2,7.4,29.35,SSW,192,0.0,2.0,62,0.00,,OVC060,0.00,0.00,VWS V14.01,2013-02-02 01:43:00,
2013-02-01 19:44:00,18.2,7.4,29.35,SW,221,0.0,3.0,62,0.00,,OVC060,0.00,0.00,VWS V14.01,2013-02-02 01:44:00,
2013-02-01 19:45:00,18.2,7.4,29.35,SW,221,0.0,1.0,62,0.00,,OVC060,0.00,0.00,VWS V14.01,2013-02-02 01:45:00,
2013-02-01 19:49:00,18.2,7.4,29.35,South,183,0.0,1.0,62,0.00,,OVC060,0.00,0.00,VWS V14.01,2013-02-02 01:49:00,
2013-02-01 19:50:00,18.2,7.4,29.35,SSW,197,1.0,2.0,62,0.00,,OVC060,0.00,0.00,VWS V14.01,2013-02-02 01:50:00,
2013-02-01 19:51:00,18.2,7.4,29.34,SW,215,0.0,2.0,62,0.00,,OVC060,0.00,0.00,VWS V14.01,2013-02-02 01:51:00,
2013-02-01 19:53:00,18.3,7.5,29.34,SW,215,0.0,0.0,62,0.00,,OVC060,0.00,0.00,VWS V14.01,2013-02-02 01:53:00,
2013-02-01 19:57:00,18.4,7.6,29.34,SW,214,0.0,1.0,62,0.00,,OVC060,0.00,0.00,VWS V14.01,2013-02-02 01:57:00,
2013-02-01 19:58:00,18.4,7.6,29.34,West,264,1.0,2.0,62,0.00,,OVC060,0.00,0.00,VWS V14.01,2013-02-02 01:58:00,
2013-02-01 20:03:00,18.4,7.6,29.33,South,187,1.0,4.0,62,0.00,,OVC055,0.00,0.00,VWS V14.01,2013-02-02 02:03:00,
2013-02-01 20:05:00,18.4,7.6,29.33,WSW,238,0.0,3.0,62,0.00,,OVC055,0.00,0.00,VWS V14.01,2013-02-02 02:05:00,
2013-02-01 20:06:00,18.4,7.6,29.33,WSW,238,0.0,1.0,62,0.00,,OVC055,0.00,0.00,VWS V14.01,2013-02-02 02:06:00,
2013-02-01 20:09:00,18.4,7.6,29.33,WSW,238,1.0,2.0,62,0.00,,OVC055,0.00,0.00,VWS V14.01,2013-02-02 02:09:00,
2013-02-01 20:10:00,18.4,7.6,29.33,WSW,238,1.0,3.0,62,0.00,,OVC055,0.00,0.00,VWS V14.01,2013-02-02 02:10:00,
2013-02-01 20:12:00,18.4,7.6,29.33,WSW,238,0.0,2.0,62,0.00,,OVC055,0.00,0.00,VWS V14.01,2013-02-02 02:12:00,
2013-02-01 20:14:00,18.4,7.9,29.33,WSW,238,0.0,0.0,63,0.00,,OVC055,0.00,0.00,VWS V14.01,2013-02-02 02:14:00,
2013-02-01 20:15:00,18.4,7.9,29.33,WSW,238,0.0,1.0,63,0.00,,OVC055,0.00,0.00,VWS V14.01,2013-02-02 02:15:00,
2013-02-01 20:16:00,18.4,7.9,29.33,West,264,2.0,2.0,63,0.00,,OVC055,0.00,0.00,VWS V14.01,2013-02-02 02:16:00,
2013-02-01 20:18:00,18.5,8.0,29.33,South,176,0.0,1.0,63,0.00,,OVC055,0.00,0.00,VWS V14.01,2013-02-02 02:18:00,
2013-02-01 20:20:00,18.5,8.0,29.33,SSE,165,5.0,5.0,63,0.00,,OVC055,0.00,0.00,VWS V14.01,2013-02-02 02:20:00,
2013-02-01 20:21:00,18.6,8.1,29.33,SSE,163,0.0,5.0,63,0.00,,OVC055,0.00,0.00,VWS V14.01,2013-02-02 02:21:00,
2013-02-01 20:23:00,18.6,8.1,29.33,SSE,159,0.0,1.0,63,0.00,,OVC055,0.00,0.00,VWS V14.01,2013-02-02 02:23:00,
2013-02-01 20:25:00,18.6,8.1,29.32,SSW,211,0.0,2.0,63,0.00,,OVC055,0.00,0.00,VWS V14.01,2013-02-02 02:25:00,
2013-02-01 20:30:00,18.7,8.2,29.32,SSE,148,0.0,1.0,63,0.00,,OVC055,0.00,0.00,VWS V14.01,2013-02-02 02:30:00,
2013-02-01 20:31:00,18.7,8.2,29.32,SSE,148,0.0,0.0,63,0.00,,OVC055,0.00,0.00,VWS V14.01,2013-02-02 02:31:00,
2013-02-01 20:32:00,18.7,8.2,29.32,SSE,153,2.0,3.0,63,0.00,,OVC055,0.00,0.00,VWS V14.01,2013-02-02 02:32:00,
2013-02-01 20:34:00,18.7,8.6,29.32,SE,134,0.0,1.0,64,0.00,,OVC055,0.00,0.00,VWS V14.01,2013-02-02 02:34:00,
2013-02-01 20:38:00,18.8,8.6,29.32,WSW,245,3.0,3.0,64,0.00,,OVC055,0.00,0.00,VWS V14.01,2013-02-02 02:38:00,
2013-02-01 20:40:00,18.8,8.6,29.32,SW,218,0.0,2.0,64,0.00,,OVC055,0.00,0.00,VWS V14.01,2013-02-02 02:40:00,
2013-02-01 20:43:00,18.8,8.6,29.32,South,178,0.0,5.0,64,0.00,,OVC055,0.00,0.00,VWS V14.01,2013-02-02 02:43:00,
2013-02-01 20:44:00,18.9,8.8,29.31,ENE,67,0.0,4.0,64,0.00,,OVC055,0.00,0.00,VWS V14.01,2013-02-02 02:44:00,
2013-02-01 20:45:00,18.9,8.8,29.31,South,187,0.0,2.0,64,0.00,,OVC055,0.00,0.00,VWS V14.01,2013-02-02 02:45:00,
2013-02-01 20:49:00,18.9,8.8,29.31,South,175,0.0,4.0,64,0.00,,OVC055,0.00,0.00,VWS V14.01,2013-02-02 02:49:00,
2013-02-01 20:50:00,18.9,8.8,29.31,South,182,0.0,1.0,64,0.00,,OVC055,0.00,0.00,VWS V14.01,2013-02-02 02:50:00,
2013-02-01 20:51:00,19.0,8.8,29.31,West,275,1.0,1.0,64,0.00,,OVC055,0.00,0.00,VWS V14.01,2013-02-02 02:51:00,
2013-02-01 20:55:00,19.1,8.9,29.31,SW,235,0.0,0.0,64,0.00,,OVC055,0.00,0.00,VWS V14.01,2013-02-02 02:55:00,
2013-02-01 20:56:00,19.1,8.9,29.31,SSW,213,1.0,3.0,64,0.00,,OVC055,0.00,0.00,VWS V14.01,2013-02-02 02:56:00,
2013-02-01 20:58:00,19.1,8.9,29.31,SSE,152,0.0,2.0,64,0.00,,OVC055,0.00,0.00,VWS V14.01,2013-02-02 02:58:00,
2013-02-01 21:04:00,19.3,9.1,29.31,SSE,152,1.0,4.0,64,0.00,,BKN050,0.00,0.00,VWS V14.01,2013-02-02 03:04:00,
2013-02-01 21:06:00,19.4,9.2,29.31,SW,218,3.0,6.0,64,0.00,,BKN050,0.00,0.00,VWS V14.01,2013-02-02 03:06:00,
2013-02-01 21:09:00,19.4,9.2,29.30,West,271,2.0,4.0,64,0.00,,BKN050,0.00,0.00,VWS V14.01,2013-02-02 03:09:00,
2013-02-01 21:11:00,19.5,9.3,29.31,East,99,0.0,4.0,64,0.00,,BKN050,0.00,0.00,VWS V14.01,2013-02-02 03:11:00,
2013-02-01 21:12:00,19.5,9.3,29.30,ESE,115,1.0,2.0,64,0.00,,BKN050,0.00,0.00,VWS V14.01,2013-02-02 03:12:00,
2013-02-01 21:13:00,19.5,9.3,29.30,South,186,0.0,2.0,64,0.00,,BKN050,0.00,0.00,VWS V14.01,2013-02-02 03:13:00,
2013-02-01 21:15:00,19.5,9.3,29.30,ESE,120,2.0,2.0,64,0.00,,BKN050,0.00,0.00,VWS V14.01,2013-02-02 03:15:00,
2013-02-01 21:19:00,19.7,9.5,29.30,SSE,159,2.0,4.0,64,0.00,,BKN050,0.00,0.00,VWS V14.01,2013-02-02 03:19:00,
2013-02-01 21:20:00,19.7,9.5,29.30,WSW,238,3.0,6.0,64,0.00,,BKN050,0.00,0.00,VWS V14.01,2013-02-02 03:20:00,
2013-02-01 21:24:00,19.7,9.5,29.30,SW,214,3.0,4.0,64,0.00,,BKN050,0.00,0.00,VWS V14.01,2013-02-02 03:24:00,
2013-02-01 21:26:00,19.7,9.5,29.30,South,171,0.0,2.0,64,0.00,,BKN050,0.00,0.00,VWS V14.01,2013-02-02 03:26:00,
2013-02-01 21:27:00,19.7,9.5,29.30,South,171,0.0,1.0,64,0.00,,BKN050,0.00,0.00,VWS V14.01,2013-02-02 03:27:00,
2013-02-01 21:29:00,19.7,9.5,29.30,SE,124,1.0,2.0,64,0.00,,BKN050,0.00,0.00,VWS V14.01,2013-02-02 03:29:00,
2013-02-01 21:34:00,19.7,9.5,29.30,WSW,247,2.0,2.0,64,0.00,,BKN050,0.00,0.00,VWS V14.01,2013-02-02 03:34:00,
2013-02-01 21:35:00,19.7,9.5,29.30,SW,219,0.0,2.0,64,0.00,,BKN050,0.00,0.00,VWS V14.01,2013-02-02 03:35:00,
2013-02-01 21:37:00,19.7,9.5,29.30,South,175,0.0,6.0,64,0.00,,BKN050,0.00,0.00,VWS V14.01,2013-02-02 03:37:00,
2013-02-01 21:39:00,19.7,9.5,29.29,SSW,198,0.0,3.0,64,0.00,,BKN050,0.00,0.00,VWS V14.01,2013-02-02 03:39:00,
2013-02-01 21:41:00,19.7,9.5,29.29,South,191,1.0,6.0,64,0.00,,BKN050,0.00,0.00,VWS V14.01,2013-02-02 03:41:00,
2013-02-01 21:43:00,19.7,9.5,29.30,East,92,0.0,2.0,64,0.00,,BKN050,0.00,0.00,VWS V14.01,2013-02-02 03:43:00,
2013-02-01 21:45:00,19.7,9.5,29.29,South,171,1.0,5.0,64,0.00,,BKN050,0.00,0.00,VWS V14.01,2013-02-02 03:45:00,
2013-02-01 21:46:00,19.7,9.5,29.29,South,171,1.0,1.0,64,0.00,,BKN050,0.00,0.00,VWS V14.01,2013-02-02 03:46:00,
2013-02-01 21:47:00,19.8,9.6,29.29,SSW,198,1.0,2.0,64,0.00,,BKN050,0.00,0.00,VWS V14.01,2013-02-02 03:47:00,
2013-02-01 21:50:00,19.9,9.7,29.29,SW,224,0.0,4.0,64,0.00,,BKN050,0.00,0.00,VWS V14.01,2013-02-02 03:50:00,
2013-02-01 21:52:00,19.9,10.1,29.29,SSE,162,4.0,4.0,65,0.00,,BKN050,0.00,0.00,VWS V14.01,2013-02-02 03:52:00,
2013-02-01 21:53:00,19.9,10.1,29.29,SW,215,2.0,5.0,65,0.00,,BKN050,0.00,0.00,VWS V14.01,2013-02-02 03:53:00,
2013-02-01 21:56:00,19.9,10.1,29.29,SSW,198,0.0,1.0,65,0.00,,BKN050,0.00,0.00,VWS V14.01,2013-02-02 03:56:00,
2013-02-01 21:57:00,19.9,10.1,29.29,SSE,164,2.0,3.0,65,0.00,,BKN050,0.00,0.00,VWS V14.01,2013-02-02 03:57:00,
2013-02-01 21:58:00,19.9,10.1,29.29,SSE,156,0.0,6.0,65,0.00,,BKN050,0.00,0.00,VWS V14.01,2013-02-02 03:58:00,
2013-02-01 22:02:00,20.0,9.8,29.29,South,186,2.0,6.0,64,0.00,,FEW037,0.00,0.00,VWS V14.01,2013-02-02 04:02:00,
2013-02-01 22:04:00,20.0,9.8,29.28,ESE,104,0.0,5.0,64,0.00,,FEW037,0.00,0.00,VWS V14.01,2013-02-02 04:04:00,
2013-02-01 22:06:00,20.0,9.8,29.29,SE,146,0.0,5.0,64,0.00,,FEW037,0.00,0.00,VWS V14.01,2013-02-02 04:06:00,
2013-02-01 22:09:00,20.0,9.8,29.28,SE,129,4.0,5.0,64,0.00,,FEW037,0.00,0.00,VWS V14.01,2013-02-02 04:09:00,
2013-02-01 22:10:00,20.0,9.8,29.28,SW,227,3.0,4.0,64,0.00,,FEW037,0.00,0.00,VWS V14.01,2013-02-02 04:10:00,
2013-02-01 22:14:00,20.1,10.2,29.28,ESE,114,1.0,1.0,65,0.00,,FEW037,0.00,0.00,VWS V14.01,2013-02-02 04:14:00,
2013-02-01 22:15:00,20.1,10.2,29.28,WSW,242,0.0,4.0,65,0.00,,FEW037,0.00,0.00,VWS V14.01,2013-02-02 04:15:00,
2013-02-01 22:17:00,20.1,10.2,29.28,SSW,206,2.0,4.0,65,0.00,,FEW037,0.00,0.00,VWS V14.01,2013-02-02 04:17:00,
2013-02-01 22:18:00,20.1,10.2,29.28,South,169,0.0,4.0,65,0.00,,FEW037,0.00,0.00,VWS V14.01,2013-02-02 04:18:00,
2013-02-01 22:19:00,20.1,9.9,29.28,West,259,0.0,6.0,64,0.00,,FEW037,0.00,0.00,VWS V14.01,2013-02-02 04:19:00,
2013-02-01 22:21:00,20.2,10.3,29.29,WNW,287,1.0,4.0,65,0.00,,FEW037,0.00,0.00,VWS V14.01,2013-02-02 04:21:00,
2013-02-01 22:22:00,20.2,10.3,29.28,ESE,107,0.0,4.0,65,0.00,,FEW037,0.00,0.00,VWS V14.01,2013-02-02 04:22:00,
2013-02-01 22:25:00,20.2,10.3,29.28,SW,230,4.0,5.0,65,0.00,,FEW037,0.00,0.00,VWS V14.01,2013-02-02 04:25:00,
2013-02-01 22:27:00,20.2,10.3,29.28,SE,144,0.0,3.0,65,0.00,,FEW037,0.00,0.00,VWS V14.01,2013-02-02 04:27:00,
2013-02-01 22:28:00,20.2,10.3,29.28,SE,128,2.0,4.0,65,0.00,,FEW037,0.00,0.00,VWS V14.01,2013-02-02 04:28:00,
2013-02-01 22:30:00,20.2,10.7,29.28,SE,145,0.0,2.0,66,0.00,,FEW037,0.00,0.00,VWS V14.01,2013-02-02 04:30:00,
2013-02-01 22:33:00,20.2,11.0,29.28,WSW,241,0.0,4.0,67,0.00,,FEW037,0.00,0.00,VWS V14.01,2013-02-02 04:33:00,
2013-02-01 22:35:00,20.2,11.0,29.28,SSW,207,2.0,5.0,67,0.00,,FEW037,0.00,0.00,VWS V14.01,2013-02-02 04:35:00,
2013-02-01 22:37:00,20.1,11.2,29.28,NNW,333,2.0,3.0,68,0.00,,FEW037,0.00,0.00,VWS V14.01,2013-02-02 04:37:00,
2013-02-01 22:39:00,20.1,11.6,29.28,SW,234,1.0,3.0,69,0.00,,FEW037,0.00,0.00,VWS V14.01,2013-02-02 04:39:00,
2013-02-01 22:40:00,20.1,11.6,29.28,NW,317,1.0,5.0,69,0.00,,FEW037,0.00,0.00,VWS V14.01,2013-02-02 04:40:00,
2013-02-01 22:42:00,20.1,11.6,29.28,South,184,0.0,5.0,69,0.00,,FEW037,0.00,0.00,VWS V14.01,2013-02-02 04:42:00,
2013-02-01 22:45:00,20.0,11.8,29.27,West,279,0.0,6.0,70,0.00,,FEW037,0.00,0.00,VWS V14.01,2013-02-02 04:45:00,
2013-02-01 22:47:00,20.0,11.8,29.27,SW,217,2.0,6.0,70,0.00,,FEW037,0.00,0.00,VWS V14.01,2013-02-02 04:47:00,
2013-02-01 22:48:00,19.9,11.7,29.27,SSW,202,1.0,7.0,70,0.00,,FEW037,0.00,0.00,VWS V14.01,2013-02-02 04:48:00,
2013-02-01 22:49:00,19.9,12.0,29.27,SW,219,0.0,5.0,71,0.00,,FEW037,0.00,0.00,VWS V14.01,2013-02-02 04:49:00,
2013-02-01 22:52:00,19.8,11.9,29.27,SSE,148,4.0,7.0,71,0.00,,FEW037,0.00,0.00,VWS V14.01,2013-02-02 04:52:00,
2013-02-01 22:53:00,19.7,11.8,29.27,SSW,206,2.0,5.0,71,0.00,,FEW037,0.00,0.00,VWS V14.01,2013-02-02 04:53:00,
2013-02-01 22:57:00,19.7,12.5,29.27,SW,216,1.0,3.0,73,0.00,,FEW037,0.00,0.00,VWS V14.01,2013-02-02 04:57:00,
2013-02-01 22:58:00,19.7,12.5,29.27,ESE,107,0.0,2.0,73,0.00,,FEW037,0.00,0.00,VWS V14.01,2013-02-02 04:58:00,
2013-02-01 23:00:00,19.7,12.5,29.27,SW,221,6.0,6.0,73,0.00,,FEW037,0.00,0.00,VWS V14.01,2013-02-02 05:00:00,
2013-02-01 23:01:00,19.7,12.8,29.27,ESE,107,0.0,3.0,74,0.00,,FEW030,0.00,0.00,VWS V14.01,2013-02-02 05:01:00,
2013-02-01 23:04:00,19.7,12.8,29.27,SSE,165,0.0,5.0,74,0.00,,FEW030,0.00,0.00,VWS V14.01,2013-02-02 05:04:00,
2013-02-01 23:06:00,19.7,13.1,29.27,SSE,159,1.0,4.0,75,0.00,,FEW030,0.00,0.00,VWS V14.01,2013-02-02 05:06:00,
2013-02-01 23:07:00,19.7,13.1,29.27,SSW,205,1.0,2.0,75,0.00,,FEW030,0.00,0.00,VWS V14.01,2013-02-02 05:07:00,
2013-02-01 23:10:00,19.7,13.4,29.27,SW,230,3.0,5.0,76,0.00,,FEW030,0.00,0.00,VWS V14.01,2013-02-02 05:10:00,
2013-02-01 23:13:00,19.6,13.6,29.27,SSW,207,2.0,4.0,77,0.00,,FEW030,0.00,0.00,VWS V14.01,2013-02-02 05:13:00,
2013-02-01 23:14:00,19.6,13.6,29.27,SE,145,0.0,8.0,77,0.00,,FEW030,0.00,0.00,VWS V14.01,2013-02-02 05:14:00,
2013-02-01 23:17:00,19.5,13.8,29.27,ESE,105,1.0,8.0,78,0.00,,FEW030,0.00,0.00,VWS V14.01,2013-02-02 05:17:00,
2013-02-01 23:20:00,19.4,14.0,29.27,SW,215,1.0,4.0,79,0.00,,FEW030,0.00,0.00,VWS V14.01,2013-02-02 05:20:00,
2013-02-01 23:25:00,19.3,14.1,29.27,SSW,212,2.0,3.0,80,0.00,,FEW030,0.00,0.00,VWS V14.01,2013-02-02 05:25:00,
2013-02-01 23:26:00,19.3,14.1,29.27,SSW,212,1.0,4.0,80,0.00,,FEW030,0.00,0.00,VWS V14.01,2013-02-02 05:26:00,
2013-02-01 23:31:00,19.3,14.4,29.27,SSW,194,1.0,5.0,81,0.00,,,0.00,0.00,VWS V14.01,2013-02-02 05:31:00,
2013-02-01 23:32:00,19.3,14.4,29.26,SE,138,1.0,4.0,81,0.00,,,0.00,0.00,VWS V14.01,2013-02-02 05:32:00,
2013-02-01 23:34:00,19.3,14.4,29.26,South,169,0.0,0.0,81,0.00,,,0.00,0.00,VWS V14.01,2013-02-02 05:34:00,
2013-02-01 23:36:00,19.3,14.4,29.26,SE,146,1.0,2.0,81,0.00,,,0.00,0.00,VWS V14.01,2013-02-02 05:36:00,
2013-02-01 23:37:00,19.3,14.4,29.26,SW,230,1.0,4.0,81,0.00,,,0.00,0.00,VWS V14.01,2013-02-02 05:37:00,
2013-02-01 23:39:00,19.3,14.7,29.26,SE,138,6.0,6.0,82,0.00,,,0.00,0.00,VWS V14.01,2013-02-02 05:39:00,
2013-02-01 23:41:00,19.4,14.8,29.26,SSE,167,2.0,2.0,82,0.00,,,0.00,0.00,VWS V14.01,2013-02-02 05:41:00,
2013-02-01 23:43:00,19.4,14.8,29.26,ENE,72,0.0,1.0,82,0.00,,,0.00,0.00,VWS V14.01,2013-02-02 05:43:00,
2013-02-01 23:45:00,19.4,14.8,29.26,SSE,156,2.0,3.0,82,0.00,,,0.00,0.00,VWS V14.01,2013-02-02 05:45:00,
2013-02-01 23:46:00,19.4,14.8,29.26,SSE,163,0.0,4.0,82,0.00,,,0.00,0.00,VWS V14.01,2013-02-02 05:46:00,
2013-02-01 23:51:00,19.5,15.2,29.26,SW,229,1.0,4.0,83,0.00,,,0.00,0.00,VWS V14.01,2013-02-02 05:51:00,
2013-02-01 23:52:00,19.5,15.2,29.26,SW,218,0.0,2.0,83,0.00,,,0.00,0.00,VWS V14.01,2013-02-02 05:52:00,
2013-02-01 23:54:00,19.7,15.4,29.26,South,169,0.0,4.0,83,0.00,,,0.00,0.00,VWS V14.01,2013-02-02 05:54:00,
2013-02-01 23:56:00,19.7,15.4,29.26,SSW,211,0.0,4.0,83,0.00,,,0.00,0.00,VWS V14.01,2013-02-02 05:56:00,
2013-02-01 23:57:00,19.7,15.4,29.26,SSW,210,2.0,4.0,83,0.00,,,0.00,0.00,VWS V14.01,2013-02-02 05:57:00,
2013-02-01 23:59:00,19.7,15.4,29.26,SW,236,2.0,5.0,83,0.00,,,0.00,0.00,VWS V14.01,2013-02-02 05:59:00,